AFR547 UUDD-FMEE

Flight info

Callsign AFR547
Flight time N/A
Altitude 35000
Route LINRU T614 OSPER T828 OLBEG N72 BAKUV N39 PIROG N23 ULDUS N39 NSH R794 DHN Y4 ROVAD W32 ASMUK M318 RADEB M317 GABKO R401 SUHIL UM314 NIBIS
Aircraft A343/H-SBDFGM3RWXY/LB1

Departure

Time 2026-05-03 21:33
Airport Domodedovo International Airport (UUDD)

Arrival

Time N/A
Airport Roland Garros Airport (FMEE)
Time Latitude Longitude Altitude Speed Heading
2026-05-03 21:22 55.42098 37.87776 598 ft 0 kts 236°
2026-05-03 21:28 55.42093 37.87762 598 ft 2 kts 236°
2026-05-03 21:28 55.42090 37.87754 598 ft 1 kts 236°
2026-05-03 21:28 55.42080 37.87730 599 ft 4 kts 236°
2026-05-03 21:28 55.42068 37.87689 600 ft 3 kts 249°
2026-05-03 21:29 55.42073 37.87641 601 ft 5 kts 294°
2026-05-03 21:29 55.42100 37.87595 602 ft 5 kts 321°
2026-05-03 21:29 55.42123 37.87564 603 ft 4 kts 324°
2026-05-03 21:29 55.42144 37.87537 602 ft 4 kts 324°
2026-05-03 21:30 55.42170 37.87501 602 ft 6 kts 319°
2026-05-03 21:30 55.42176 37.87431 601 ft 6 kts 255°
2026-05-03 21:30 55.42150 37.87354 601 ft 9 kts 237°
2026-05-03 21:30 55.42101 37.87259 599 ft 8 kts 203°
2026-05-03 21:31 55.42055 37.87285 599 ft 7 kts 148°
2026-05-03 21:31 55.42042 37.87300 599 ft 0 kts 146°
2026-05-03 21:32 55.42041 37.87301 599 ft 1 kts 146°
2026-05-03 21:32 55.41974 37.87381 599 ft 35 kts 146°
2026-05-03 21:32 55.41592 37.87837 590 ft 96 kts 145°
2026-05-03 21:32 55.40894 37.88677 580 ft 146 kts 146°
2026-05-03 21:33 55.39932 37.89829 661 ft 181 kts 147°
2026-05-03 21:33 55.38887 37.91087 1247 ft 183 kts 146°
2026-05-03 21:33 55.37748 37.92146 1803 ft 191 kts 164°
2026-05-03 21:33 55.36431 37.92506 2162 ft 196 kts 173°
2026-05-03 21:34 55.35035 37.92686 2497 ft 206 kts 180°
2026-05-03 21:34 55.33566 37.92628 2773 ft 221 kts 180°
2026-05-03 21:34 55.31972 37.93073 2935 ft 243 kts 170°
2026-05-03 21:34 55.30241 37.93474 3196 ft 259 kts 176°
2026-05-03 21:35 55.28397 37.93410 3462 ft 271 kts 191°
2026-05-03 21:35 55.26636 37.92271 3725 ft 272 kts 211°
2026-05-03 21:35 55.25053 37.90421 4017 ft 274 kts 214°
2026-05-03 21:35 55.23459 37.88555 4268 ft 277 kts 214°
2026-05-03 21:36 55.21916 37.86548 4450 ft 277 kts 219°
2026-05-03 21:36 55.20419 37.84413 4634 ft 277 kts 218°
2026-05-03 21:36 55.18850 37.82465 4810 ft 278 kts 212°
2026-05-03 21:36 55.17179 37.80740 4906 ft 279 kts 208°
2026-05-03 21:37 55.15373 37.79491 5108 ft 281 kts 197°
2026-05-03 21:37 55.13636 37.78635 5565 ft 283 kts 195°
2026-05-03 21:37 55.11731 37.77774 6147 ft 283 kts 194°
2026-05-03 21:37 55.09811 37.76934 6678 ft 285 kts 194°
2026-05-03 21:38 55.07875 37.76100 7188 ft 288 kts 194°
2026-05-03 21:38 55.05920 37.75266 7688 ft 290 kts 194°
2026-05-03 21:38 55.03951 37.74431 8176 ft 293 kts 194°
2026-05-03 21:38 55.02636 37.73874 8495 ft 294 kts 194°
2026-05-03 21:39 55.00626 37.73136 8958 ft 297 kts 187°
2026-05-03 21:39 54.97904 37.73583 9563 ft 300 kts 165°
2026-05-03 21:39 54.96541 37.74262 9873 ft 302 kts 163°
2026-05-03 21:39 54.93845 37.75687 10314 ft 312 kts 163°
2026-05-03 21:40 54.92433 37.76428 10506 ft 317 kts 163°
2026-05-03 21:40 54.90306 37.77535 10879 ft 321 kts 163°
2026-05-03 21:40 54.88157 37.78647 11281 ft 324 kts 164°
2026-05-03 21:40 54.85980 37.79768 11679 ft 327 kts 164°
2026-05-03 21:41 54.83796 37.80920 12070 ft 330 kts 161°
2026-05-03 21:41 54.81753 37.82740 12430 ft 334 kts 142°
2026-05-03 21:41 54.80023 37.85449 12832 ft 336 kts 135°
2026-05-03 21:41 54.78369 37.88318 13204 ft 338 kts 135°
2026-05-03 21:42 54.76702 37.91211 13571 ft 341 kts 135°
2026-05-03 21:42 54.75015 37.94121 13933 ft 343 kts 135°
2026-05-03 21:42 54.73317 37.97035 14286 ft 345 kts 136°
2026-05-03 21:42 54.71605 37.99965 14629 ft 347 kts 136°
2026-05-03 21:43 54.69879 38.02910 14968 ft 349 kts 136°
2026-05-03 21:43 54.68019 38.05613 15269 ft 351 kts 149°
2026-05-03 21:43 54.65775 38.07339 15482 ft 356 kts 162°
2026-05-03 21:43 54.63389 38.08623 15632 ft 363 kts 163°
2026-05-03 21:44 54.60944 38.09889 15779 ft 370 kts 163°
2026-05-03 21:44 54.58461 38.11187 15920 ft 376 kts 163°
2026-05-03 21:44 54.55941 38.12514 16055 ft 382 kts 163°
2026-05-03 21:44 54.53379 38.13868 16180 ft 388 kts 163°
2026-05-03 21:45 54.50823 38.15223 16298 ft 393 kts 163°
2026-05-03 21:45 54.48195 38.16623 16412 ft 398 kts 163°
2026-05-03 21:45 54.45534 38.18037 16521 ft 402 kts 163°
2026-05-03 21:45 54.42847 38.19464 16625 ft 407 kts 163°
2026-05-03 21:46 54.40128 38.20906 16723 ft 411 kts 163°
2026-05-03 21:46 54.37386 38.22359 16826 ft 415 kts 163°
2026-05-03 21:46 54.34636 38.23887 16975 ft 417 kts 160°
2026-05-03 21:46 54.31931 38.25704 17141 ft 419 kts 158°
2026-05-03 21:47 54.29253 38.27702 17306 ft 420 kts 156°
2026-05-03 21:47 54.26585 38.29784 17469 ft 422 kts 155°
2026-05-03 21:47 54.23918 38.31887 17630 ft 423 kts 155°
2026-05-03 21:47 54.21242 38.33987 17790 ft 424 kts 156°
2026-05-03 21:48 54.18550 38.36076 17947 ft 425 kts 156°
2026-05-03 21:48 54.15847 38.38154 18102 ft 427 kts 156°
2026-05-03 21:48 54.13137 38.40222 18252 ft 428 kts 156°
2026-05-03 21:48 54.10413 38.42290 18399 ft 429 kts 156°
2026-05-03 21:49 54.07682 38.44357 18543 ft 430 kts 156°
2026-05-03 21:49 54.04948 38.46422 18683 ft 431 kts 156°
2026-05-03 21:49 54.02201 38.48495 18821 ft 432 kts 156°
2026-05-03 21:49 53.99451 38.50569 18957 ft 433 kts 156°
2026-05-03 21:50 53.96693 38.52645 19089 ft 434 kts 156°
2026-05-03 21:50 53.93934 38.54721 19216 ft 435 kts 156°
2026-05-03 21:50 53.91159 38.56805 19340 ft 436 kts 156°
2026-05-03 21:50 53.88383 38.58887 19462 ft 437 kts 156°
2026-05-03 21:51 53.85597 38.60974 19580 ft 438 kts 156°
2026-05-03 21:51 53.82878 38.63008 19691 ft 439 kts 156°
2026-05-03 21:51 53.80012 38.65147 19805 ft 440 kts 156°
2026-05-03 21:51 53.77215 38.67233 19913 ft 440 kts 156°
2026-05-03 21:52 53.74403 38.69327 20018 ft 441 kts 156°
2026-05-03 21:52 53.71593 38.71416 20121 ft 442 kts 156°
2026-05-03 21:52 53.68777 38.73507 20222 ft 443 kts 156°
2026-05-03 21:52 53.65956 38.75598 20318 ft 444 kts 156°
2026-05-03 21:53 53.63127 38.77692 20412 ft 444 kts 156°
2026-05-03 21:53 53.60292 38.79787 20504 ft 445 kts 156°
2026-05-03 21:53 53.57453 38.81882 20592 ft 446 kts 156°
2026-05-03 21:53 53.54607 38.83979 20679 ft 446 kts 156°
2026-05-03 21:54 53.51763 38.86073 20763 ft 447 kts 156°
2026-05-03 21:54 53.48908 38.88170 20844 ft 448 kts 156°
2026-05-03 21:54 53.46051 38.90267 20925 ft 448 kts 156°
2026-05-03 21:54 53.43194 38.92360 21003 ft 449 kts 156°
2026-05-03 21:55 53.40317 38.94428 21079 ft 450 kts 157°
2026-05-03 21:55 53.37582 38.96343 21150 ft 450 kts 158°
2026-05-03 21:55 53.34630 38.98387 21224 ft 451 kts 158°
2026-05-03 21:55 53.31729 39.00390 21294 ft 451 kts 158°
2026-05-03 21:56 53.28825 39.02397 21362 ft 452 kts 158°
2026-05-03 21:56 53.25922 39.04407 21429 ft 452 kts 158°
2026-05-03 21:56 53.23011 39.06426 21494 ft 453 kts 158°
2026-05-03 21:56 53.20101 39.08444 21558 ft 453 kts 158°
2026-05-03 21:57 53.17189 39.10462 21619 ft 454 kts 158°
2026-05-03 21:57 53.14269 39.12483 21679 ft 454 kts 158°
2026-05-03 21:57 53.11351 39.14501 21739 ft 455 kts 158°
2026-05-03 21:57 53.08423 39.16521 21796 ft 455 kts 158°
2026-05-03 21:58 53.05498 39.18537 21852 ft 456 kts 158°
2026-05-03 21:58 53.02564 39.20555 21907 ft 456 kts 158°
2026-05-03 21:58 52.99630 39.22571 21960 ft 457 kts 158°
2026-05-03 21:58 52.96692 39.24585 22013 ft 457 kts 158°
2026-05-03 21:59 52.93754 39.26598 22063 ft 457 kts 158°
2026-05-03 21:59 52.90809 39.28612 22113 ft 458 kts 158°
2026-05-03 21:59 52.87869 39.30619 22162 ft 458 kts 158°
2026-05-03 21:59 52.84916 39.32632 22210 ft 459 kts 158°
2026-05-03 22:00 52.81966 39.34641 22257 ft 459 kts 158°
2026-05-03 22:00 52.79011 39.36650 22303 ft 459 kts 158°
2026-05-03 22:00 52.76058 39.38654 22349 ft 460 kts 158°
2026-05-03 22:00 52.73131 39.40638 22392 ft 460 kts 158°
2026-05-03 22:01 52.70137 39.42664 22436 ft 460 kts 158°
2026-05-03 22:01 52.67169 39.44670 22479 ft 461 kts 158°
2026-05-03 22:01 52.64205 39.46671 22521 ft 461 kts 158°
2026-05-03 22:01 52.61271 39.48648 22561 ft 461 kts 158°
2026-05-03 22:02 52.58303 39.50645 22600 ft 462 kts 158°
2026-05-03 22:02 52.55327 39.52645 22639 ft 462 kts 158°
2026-05-03 22:02 52.52343 39.54647 22678 ft 462 kts 158°
2026-05-03 22:02 52.49364 39.56643 22716 ft 463 kts 158°
2026-05-03 22:03 52.46384 39.58636 22753 ft 463 kts 158°
2026-05-03 22:03 52.43403 39.60635 22788 ft 463 kts 157°
2026-05-03 22:03 52.40468 39.62836 22823 ft 464 kts 154°
2026-05-03 22:03 52.37593 39.65220 22858 ft 464 kts 153°
2026-05-03 22:04 52.34732 39.67677 22893 ft 464 kts 152°
2026-05-03 22:04 52.31876 39.70131 22927 ft 464 kts 153°
2026-05-03 22:04 52.29006 39.72567 22960 ft 465 kts 153°
2026-05-03 22:04 52.26126 39.74972 22991 ft 465 kts 153°
2026-05-03 22:05 52.23238 39.77356 23021 ft 465 kts 153°
2026-05-03 22:05 52.20347 39.79722 23052 ft 465 kts 154°
2026-05-03 22:05 52.17452 39.82079 23082 ft 466 kts 154°
2026-05-03 22:05 52.14551 39.84435 23111 ft 466 kts 154°
2026-05-03 22:06 52.11652 39.86786 23139 ft 466 kts 154°
2026-05-03 22:06 52.08745 39.89141 23168 ft 466 kts 154°
2026-05-03 22:06 52.05841 39.91492 23196 ft 466 kts 154°
2026-05-03 22:06 52.02939 39.93838 23223 ft 467 kts 154°
2026-05-03 22:07 52.00030 39.96189 23248 ft 467 kts 154°
2026-05-03 22:07 51.97127 39.98538 23274 ft 467 kts 154°
2026-05-03 22:07 51.94216 40.00899 23299 ft 467 kts 154°
2026-05-03 22:07 51.91307 40.03258 23323 ft 467 kts 154°
2026-05-03 22:08 51.88402 40.05610 23347 ft 468 kts 154°
2026-05-03 22:08 51.85486 40.07967 23370 ft 468 kts 154°
2026-05-03 22:08 51.82578 40.10319 23393 ft 468 kts 154°
2026-05-03 22:08 51.79665 40.12667 23415 ft 468 kts 154°
2026-05-03 22:09 51.76749 40.15009 23437 ft 468 kts 154°
2026-05-03 22:09 51.73827 40.17351 23459 ft 469 kts 154°
2026-05-03 22:09 51.70985 40.19930 23477 ft 469 kts 149°
2026-05-03 22:10 51.65444 40.25480 23523 ft 469 kts 148°
2026-05-03 22:10 51.62694 40.28317 23541 ft 469 kts 147°
2026-05-03 22:10 51.59949 40.31161 23560 ft 470 kts 147°
2026-05-03 22:10 51.57205 40.34004 23580 ft 470 kts 147°
2026-05-03 22:11 51.54458 40.36847 23598 ft 470 kts 147°
2026-05-03 22:11 51.51704 40.39686 23618 ft 470 kts 148°
2026-05-03 22:11 51.48949 40.42512 23636 ft 470 kts 148°
2026-05-03 22:11 51.46194 40.45333 23655 ft 470 kts 148°
2026-05-03 22:12 51.43437 40.48153 23672 ft 470 kts 148°
2026-05-03 22:12 51.40671 40.50971 23688 ft 470 kts 148°
2026-05-03 22:12 51.37909 40.53778 23705 ft 471 kts 148°
2026-05-03 22:12 51.35142 40.56586 23723 ft 471 kts 148°
2026-05-03 22:13 51.32446 40.59546 23728 ft 471 kts 141°
2026-05-03 22:13 51.30014 40.63060 23753 ft 471 kts 136°
2026-05-03 22:13 51.27691 40.66763 23768 ft 472 kts 134°
2026-05-03 22:13 51.25426 40.70553 23783 ft 472 kts 133°
2026-05-03 22:14 51.23188 40.74381 23799 ft 472 kts 133°
2026-05-03 22:14 51.20957 40.78219 23814 ft 472 kts 133°
2026-05-03 22:14 51.18724 40.82051 23830 ft 472 kts 133°
2026-05-03 22:14 51.16482 40.85875 23843 ft 472 kts 133°
2026-05-03 22:15 51.14260 40.89643 23856 ft 472 kts 133°
2026-05-03 22:15 51.11980 40.93493 23870 ft 472 kts 134°
2026-05-03 22:15 51.09749 40.97246 23882 ft 473 kts 134°
2026-05-03 22:15 51.07457 41.01094 23896 ft 473 kts 134°
2026-05-03 22:16 51.05231 41.04834 23908 ft 473 kts 134°
2026-05-03 22:16 51.02966 41.08627 23921 ft 473 kts 134°
2026-05-03 22:16 51.00702 41.12406 23935 ft 473 kts 134°
2026-05-03 22:16 50.98429 41.16194 23946 ft 473 kts 134°
2026-05-03 22:17 50.96160 41.19972 23959 ft 473 kts 134°
2026-05-03 22:17 50.93890 41.23747 23972 ft 473 kts 134°
2026-05-03 22:17 50.91616 41.27524 23983 ft 473 kts 134°
2026-05-03 22:17 50.89347 41.31286 23994 ft 473 kts 134°
2026-05-03 22:18 50.87071 41.35057 24006 ft 473 kts 134°
2026-05-03 22:18 50.84794 41.38822 24016 ft 473 kts 134°
2026-05-03 22:18 50.82516 41.42585 24029 ft 473 kts 134°
2026-05-03 22:18 50.80205 41.46396 24040 ft 474 kts 134°
2026-05-03 22:19 50.77927 41.50145 24052 ft 474 kts 134°
2026-05-03 22:19 50.75675 41.53847 24061 ft 474 kts 134°
2026-05-03 22:19 50.73391 41.57596 24071 ft 474 kts 134°
2026-05-03 22:19 50.71105 41.61344 24082 ft 474 kts 134°
2026-05-03 22:20 50.68816 41.65089 24090 ft 474 kts 134°
2026-05-03 22:20 50.66526 41.68831 24100 ft 474 kts 134°
2026-05-03 22:20 50.64239 41.72570 24110 ft 474 kts 134°
2026-05-03 22:20 50.61948 41.76310 24119 ft 474 kts 134°
2026-05-03 22:21 50.59659 41.80042 24130 ft 474 kts 134°
2026-05-03 22:21 50.57369 41.83772 24140 ft 474 kts 134°
2026-05-03 22:21 50.55077 41.87497 24148 ft 474 kts 134°
2026-05-03 22:21 50.52783 41.91222 24158 ft 474 kts 134°
2026-05-03 22:22 50.50482 41.94950 24167 ft 474 kts 134°
2026-05-03 22:22 50.48184 41.98669 24176 ft 474 kts 134°
2026-05-03 22:22 50.45887 42.02381 24186 ft 474 kts 134°
2026-05-03 22:22 50.43586 42.06094 24194 ft 474 kts 134°
2026-05-03 22:23 50.41281 42.09808 24201 ft 475 kts 134°
2026-05-03 22:23 50.38979 42.13510 24209 ft 475 kts 134°
2026-05-03 22:23 50.36678 42.17207 24218 ft 475 kts 134°
2026-05-03 22:23 50.34364 42.20894 24224 ft 475 kts 136°
2026-05-03 22:24 50.32776 42.23261 24229 ft 475 kts 137°
2026-05-03 22:24 50.30285 42.26749 24240 ft 475 kts 139°
2026-05-03 22:24 50.27825 42.30082 24247 ft 475 kts 140°
2026-05-03 22:24 50.25324 42.33451 24256 ft 475 kts 139°
2026-05-03 22:25 50.22831 42.36831 24264 ft 475 kts 139°
2026-05-03 22:25 50.20345 42.40230 24272 ft 475 kts 139°
2026-05-03 22:25 50.17870 42.43639 24283 ft 475 kts 139°
2026-05-03 22:25 50.15400 42.47055 24287 ft 475 kts 139°
2026-05-03 22:26 50.12929 42.50475 24294 ft 475 kts 139°
2026-05-03 22:26 50.10459 42.53895 24301 ft 475 kts 139°
2026-05-03 22:26 50.07989 42.57309 24307 ft 475 kts 139°
2026-05-03 22:26 50.05516 42.60720 24316 ft 475 kts 139°
2026-05-03 22:27 50.03045 42.64123 24322 ft 475 kts 139°
2026-05-03 22:27 50.00569 42.67528 24329 ft 475 kts 139°
2026-05-03 22:27 49.98090 42.70930 24337 ft 475 kts 139°
2026-05-03 22:27 49.95613 42.74324 24344 ft 475 kts 139°
2026-05-03 22:28 49.93131 42.77721 24349 ft 475 kts 139°
2026-05-03 22:28 49.90653 42.81107 24355 ft 475 kts 139°
2026-05-03 22:28 49.88170 42.84495 24366 ft 475 kts 139°
2026-05-03 22:28 49.85689 42.87876 24370 ft 475 kts 139°
2026-05-03 22:29 49.83205 42.91256 24375 ft 475 kts 139°
2026-05-03 22:29 49.80719 42.94634 24381 ft 475 kts 139°
2026-05-03 22:29 49.78232 42.98007 24388 ft 475 kts 139°
2026-05-03 22:29 49.75744 43.01379 24394 ft 475 kts 139°
2026-05-03 22:30 49.73253 43.04749 24400 ft 475 kts 139°
2026-05-03 22:30 49.70763 43.08113 24405 ft 475 kts 139°
2026-05-03 22:30 49.68276 43.11469 24411 ft 476 kts 139°
2026-05-03 22:30 49.65783 43.14828 24418 ft 475 kts 139°
2026-05-03 22:31 49.63292 43.18180 24424 ft 476 kts 139°
2026-05-03 22:31 49.60796 43.21532 24429 ft 476 kts 139°
2026-05-03 22:31 49.58299 43.24882 24435 ft 476 kts 139°
2026-05-03 22:31 49.55804 43.28225 24442 ft 476 kts 139°
2026-05-03 22:32 49.53307 43.31566 24448 ft 476 kts 139°
2026-05-03 22:32 49.50807 43.34904 24454 ft 476 kts 139°
2026-05-03 22:32 49.48311 43.38235 24461 ft 476 kts 139°
2026-05-03 22:32 49.45809 43.41567 24464 ft 476 kts 139°
2026-05-03 22:33 49.43309 43.44894 24470 ft 476 kts 139°
2026-05-03 22:33 49.40806 43.48218 24475 ft 476 kts 139°
2026-05-03 22:33 49.38299 43.51544 24480 ft 476 kts 139°
2026-05-03 22:33 49.35799 43.54856 24487 ft 476 kts 139°
2026-05-03 22:34 49.33291 43.58174 24491 ft 476 kts 139°
2026-05-03 22:34 49.30781 43.61490 24497 ft 476 kts 139°
2026-05-03 22:34 49.28275 43.64797 24502 ft 476 kts 140°
2026-05-03 22:34 49.25766 43.68102 24506 ft 476 kts 140°
2026-05-03 22:35 49.23278 43.71450 24510 ft 476 kts 138°
2026-05-03 22:35 49.20838 43.74860 24515 ft 476 kts 137°
2026-05-03 22:35 49.18408 43.78311 24522 ft 476 kts 137°
2026-05-03 22:35 49.15988 43.81755 24528 ft 476 kts 137°
2026-05-03 22:36 49.13560 43.85195 24535 ft 476 kts 137°
2026-05-03 22:36 49.11126 43.88624 24539 ft 476 kts 137°
2026-05-03 22:36 49.08688 43.92038 24543 ft 476 kts 138°
2026-05-03 22:36 49.06241 43.95452 24549 ft 476 kts 138°
2026-05-03 22:37 49.03796 43.98853 24556 ft 476 kts 138°
2026-05-03 22:37 49.01348 44.02253 24559 ft 476 kts 138°
2026-05-03 22:37 48.98897 44.05651 24564 ft 476 kts 138°
2026-05-03 22:37 48.96449 44.09041 24568 ft 476 kts 138°
2026-05-03 22:38 48.94002 44.12425 24570 ft 476 kts 138°
2026-05-03 22:38 48.91545 44.15819 24577 ft 476 kts 138°
2026-05-03 22:38 48.89093 44.19202 24580 ft 476 kts 138°
2026-05-03 22:38 48.86640 44.22581 24584 ft 476 kts 138°
2026-05-03 22:39 48.84187 44.25957 24588 ft 476 kts 138°
2026-05-03 22:39 48.81731 44.29331 24592 ft 476 kts 138°
2026-05-03 22:39 48.79262 44.32688 24593 ft 476 kts 140°
2026-05-03 22:39 48.76636 44.35747 24599 ft 476 kts 144°
2026-05-03 22:40 48.73941 44.38671 24604 ft 476 kts 145°
2026-05-03 22:40 48.71223 44.41525 24608 ft 476 kts 146°
2026-05-03 22:40 48.68486 44.44351 24614 ft 476 kts 146°
2026-05-03 22:40 48.65746 44.47160 24618 ft 476 kts 146°
2026-05-03 22:41 48.63001 44.49968 24622 ft 476 kts 146°
2026-05-03 22:41 48.60259 44.52777 24625 ft 476 kts 146°
2026-05-03 22:41 48.57522 44.55583 24629 ft 476 kts 146°
2026-05-03 22:41 48.54785 44.58390 24634 ft 476 kts 146°
2026-05-03 22:42 48.52043 44.61202 24639 ft 476 kts 146°
2026-05-03 22:42 48.49305 44.64013 24643 ft 476 kts 146°
2026-05-03 22:42 48.46567 44.66817 24646 ft 476 kts 146°
2026-05-03 22:42 48.43826 44.69613 24649 ft 476 kts 146°
2026-05-03 22:43 48.41080 44.72409 24653 ft 476 kts 146°
2026-05-03 22:43 48.38334 44.75200 24659 ft 476 kts 146°
2026-05-03 22:43 48.35590 44.77986 24662 ft 476 kts 146°
2026-05-03 22:43 48.32845 44.80771 24666 ft 476 kts 146°
2026-05-03 22:44 48.30099 44.83554 24669 ft 476 kts 146°
2026-05-03 22:44 48.27349 44.86337 24673 ft 476 kts 146°
2026-05-03 22:44 48.24606 44.89111 24679 ft 476 kts 146°
2026-05-03 22:44 48.21861 44.91883 24682 ft 476 kts 146°
2026-05-03 22:45 48.19112 44.94655 24687 ft 476 kts 146°
2026-05-03 22:45 48.16362 44.97424 24689 ft 476 kts 146°
2026-05-03 22:45 48.13608 45.00194 24694 ft 476 kts 146°
2026-05-03 22:45 48.10895 45.02919 24697 ft 476 kts 146°
2026-05-03 22:46 48.08144 45.05679 24702 ft 476 kts 146°
2026-05-03 22:46 48.05391 45.08436 24705 ft 476 kts 146°
2026-05-03 22:46 48.02582 45.11078 24703 ft 476 kts 151°
2026-05-03 22:46 47.99673 45.13437 24711 ft 476 kts 152°
2026-05-03 22:47 47.96731 45.15718 24716 ft 476 kts 153°
2026-05-03 22:47 47.93777 45.17951 24722 ft 476 kts 154°
2026-05-03 22:47 47.90821 45.20155 24726 ft 476 kts 154°
2026-05-03 22:47 47.87859 45.22355 24728 ft 476 kts 154°
2026-05-03 22:48 47.84887 45.24561 24731 ft 476 kts 154°
2026-05-03 22:48 47.81929 45.26760 24735 ft 476 kts 154°
2026-05-03 22:48 47.78964 45.28965 24739 ft 476 kts 154°
2026-05-03 22:48 47.76006 45.31167 24743 ft 476 kts 154°
2026-05-03 22:49 47.73044 45.33370 24747 ft 476 kts 154°
2026-05-03 22:49 47.70081 45.35572 24750 ft 476 kts 154°
2026-05-03 22:49 47.67121 45.37770 24755 ft 476 kts 154°
2026-05-03 22:49 47.64156 45.39968 24760 ft 476 kts 154°
2026-05-03 22:50 47.61195 45.42161 24763 ft 476 kts 154°
2026-05-03 22:50 47.58236 45.44349 24766 ft 476 kts 154°
2026-05-03 22:50 47.55263 45.46544 24769 ft 476 kts 154°
2026-05-03 22:50 47.52301 45.48728 24773 ft 476 kts 154°
2026-05-03 22:51 47.49338 45.50910 24780 ft 476 kts 154°
2026-05-03 22:51 47.46374 45.53091 24784 ft 476 kts 154°
2026-05-03 22:51 47.43409 45.55269 24786 ft 476 kts 154°
2026-05-03 22:51 47.40441 45.57447 24789 ft 476 kts 154°
2026-05-03 22:52 47.37475 45.59620 24793 ft 476 kts 154°
2026-05-03 22:52 47.34504 45.61794 24797 ft 476 kts 154°
2026-05-03 22:52 47.31536 45.63964 24800 ft 476 kts 154°
2026-05-03 22:52 47.28572 45.66128 24804 ft 476 kts 154°
2026-05-03 22:53 47.25604 45.68292 24809 ft 476 kts 154°
2026-05-03 22:53 47.22634 45.70455 24812 ft 476 kts 154°
2026-05-03 22:53 47.19669 45.72623 24815 ft 476 kts 154°
2026-05-03 22:53 47.16699 45.74792 24819 ft 476 kts 154°
2026-05-03 22:54 47.13733 45.76956 24823 ft 476 kts 154°
2026-05-03 22:54 47.10763 45.79120 24827 ft 476 kts 154°
2026-05-03 22:54 47.07793 45.81281 24831 ft 476 kts 154°
2026-05-03 22:54 47.04827 45.83437 24834 ft 476 kts 154°
2026-05-03 22:55 47.01858 45.85591 24837 ft 476 kts 154°
2026-05-03 22:55 46.98887 45.87745 24841 ft 476 kts 154°
2026-05-03 22:55 46.95916 45.89896 24846 ft 476 kts 154°
2026-05-03 22:55 46.92947 45.92042 24849 ft 476 kts 154°
2026-05-03 22:56 46.89976 45.94187 24853 ft 476 kts 154°
2026-05-03 22:56 46.87004 45.96331 24858 ft 476 kts 154°
2026-05-03 22:56 46.84029 45.98474 24860 ft 476 kts 154°
2026-05-03 22:56 46.81058 46.00611 24864 ft 476 kts 154°
2026-05-03 22:57 46.78086 46.02746 24868 ft 476 kts 154°
2026-05-03 22:57 46.75110 46.04882 24872 ft 476 kts 154°
2026-05-03 22:57 46.72138 46.07012 24875 ft 476 kts 154°
2026-05-03 22:57 46.69162 46.09143 24878 ft 476 kts 154°
2026-05-03 22:58 46.66227 46.11241 24883 ft 476 kts 154°
2026-05-03 22:58 46.63252 46.13366 24887 ft 476 kts 154°
2026-05-03 22:58 46.60276 46.15488 24889 ft 476 kts 154°
2026-05-03 22:58 46.57301 46.17607 24893 ft 476 kts 154°
2026-05-03 22:59 46.54326 46.19724 24896 ft 476 kts 154°
2026-05-03 22:59 46.51350 46.21839 24900 ft 476 kts 154°
2026-05-03 22:59 46.48372 46.23952 24903 ft 476 kts 154°
2026-05-03 22:59 46.45392 46.26064 24909 ft 476 kts 154°
2026-05-03 23:00 46.42415 46.28172 24911 ft 476 kts 154°
2026-05-03 23:00 46.39435 46.30280 24916 ft 476 kts 154°
2026-05-03 23:00 46.36458 46.32382 24919 ft 476 kts 154°
2026-05-03 23:00 46.33476 46.34486 24921 ft 476 kts 154°
2026-05-03 23:01 46.30496 46.36585 24926 ft 476 kts 154°
2026-05-03 23:01 46.27522 46.38678 24929 ft 476 kts 154°
2026-05-03 23:01 46.24537 46.40776 24933 ft 476 kts 154°
2026-05-03 23:01 46.21557 46.42868 24937 ft 476 kts 154°
2026-05-03 23:02 46.18574 46.44959 24940 ft 476 kts 154°
2026-05-03 23:02 46.15588 46.47051 24943 ft 476 kts 154°
2026-05-03 23:02 46.12607 46.49136 24947 ft 476 kts 154°
2026-05-03 23:02 46.09629 46.51217 24951 ft 476 kts 154°
2026-05-03 23:03 46.06643 46.53309 24954 ft 476 kts 154°
2026-05-03 23:03 46.03660 46.55395 24957 ft 477 kts 154°
2026-05-03 23:03 46.00678 46.57476 24960 ft 477 kts 154°
2026-05-03 23:03 45.97692 46.59558 24963 ft 477 kts 154°
2026-05-03 23:04 45.94709 46.61635 24967 ft 477 kts 154°
2026-05-03 23:04 45.91730 46.63713 24970 ft 477 kts 154°
2026-05-03 23:04 45.88746 46.65792 24976 ft 477 kts 154°
2026-05-03 23:04 45.85764 46.67867 24978 ft 477 kts 154°
2026-05-03 23:05 45.82783 46.69940 24982 ft 477 kts 154°
2026-05-03 23:05 45.79799 46.72011 24984 ft 477 kts 154°
2026-05-03 23:05 45.76812 46.74083 24987 ft 477 kts 154°
2026-05-03 23:05 45.73831 46.76148 24993 ft 477 kts 154°
2026-05-03 23:06 45.70842 46.78216 24998 ft 477 kts 154°
2026-05-03 23:06 45.68829 46.79608 24998 ft 477 kts 154°
2026-05-03 23:06 45.65842 46.81675 25000 ft 477 kts 154°
2026-05-03 23:06 45.62859 46.83733 25003 ft 477 kts 154°
2026-05-03 23:07 45.59867 46.85793 25007 ft 477 kts 154°
2026-05-03 23:07 45.56881 46.87846 25011 ft 477 kts 154°
2026-05-03 23:07 45.53924 46.89877 25014 ft 477 kts 154°
2026-05-03 23:07 45.50932 46.91931 25018 ft 477 kts 154°
2026-05-03 23:08 45.47948 46.93986 25020 ft 477 kts 154°
2026-05-03 23:08 45.44965 46.96036 25023 ft 477 kts 154°
2026-05-03 23:08 45.41977 46.98085 25026 ft 477 kts 154°
2026-05-03 23:08 45.38985 47.00134 25029 ft 477 kts 154°
2026-05-03 23:09 45.35998 47.02179 25032 ft 477 kts 154°
2026-05-03 23:09 45.33007 47.04223 25036 ft 477 kts 154°
2026-05-03 23:09 45.30020 47.06262 25040 ft 477 kts 154°
2026-05-03 23:09 45.27033 47.08299 25043 ft 477 kts 154°
2026-05-03 23:10 45.24043 47.10336 25046 ft 477 kts 154°
2026-05-03 23:10 45.21049 47.12374 25051 ft 477 kts 154°
2026-05-03 23:10 45.18060 47.14406 25054 ft 477 kts 155°
2026-05-03 23:10 45.15070 47.16436 25058 ft 477 kts 155°
2026-05-03 23:11 45.12080 47.18463 25062 ft 477 kts 155°
2026-05-03 23:11 45.09089 47.20489 25064 ft 477 kts 155°
2026-05-03 23:11 45.06100 47.22512 25066 ft 477 kts 155°
2026-05-03 23:11 45.03104 47.24537 25071 ft 477 kts 155°
2026-05-03 23:12 45.00113 47.26562 25073 ft 477 kts 155°
2026-05-03 23:12 44.97121 47.28587 25076 ft 477 kts 155°
2026-05-03 23:12 44.94131 47.30609 25081 ft 477 kts 155°
2026-05-03 23:12 44.91137 47.32631 25086 ft 477 kts 155°
2026-05-03 23:13 44.88148 47.34648 25088 ft 477 kts 155°
2026-05-03 23:13 44.85156 47.36664 25090 ft 477 kts 155°
2026-05-03 23:13 44.82164 47.38677 25093 ft 477 kts 155°
2026-05-03 23:13 44.79169 47.40689 25096 ft 477 kts 155°
2026-05-03 23:14 44.76173 47.42700 25098 ft 477 kts 155°
2026-05-03 23:14 44.73183 47.44705 25101 ft 477 kts 155°
2026-05-03 23:14 44.70189 47.46710 25105 ft 477 kts 155°
2026-05-03 23:14 44.67196 47.48712 25107 ft 477 kts 155°
2026-05-03 23:15 44.64195 47.50717 25110 ft 477 kts 155°
2026-05-03 23:15 44.61203 47.52713 25115 ft 477 kts 155°
2026-05-03 23:15 44.58203 47.54713 25118 ft 477 kts 155°
2026-05-03 23:15 44.55210 47.56706 25120 ft 477 kts 155°
2026-05-03 23:16 44.52211 47.58700 25122 ft 477 kts 155°
2026-05-03 23:16 44.49215 47.60695 25125 ft 477 kts 155°
2026-05-03 23:16 44.46220 47.62695 25128 ft 477 kts 155°
2026-05-03 23:16 44.43226 47.64693 25131 ft 477 kts 155°
2026-05-03 23:17 44.40230 47.66691 25134 ft 477 kts 155°
2026-05-03 23:17 44.37240 47.68682 25137 ft 477 kts 155°
2026-05-03 23:17 44.34246 47.70673 25140 ft 477 kts 155°
2026-05-03 23:17 44.31247 47.72665 25143 ft 477 kts 155°
2026-05-03 23:18 44.28253 47.74651 25146 ft 477 kts 155°
2026-05-03 23:18 44.25252 47.76640 25150 ft 477 kts 155°
2026-05-03 23:18 44.22254 47.78625 25153 ft 477 kts 155°
2026-05-03 23:18 44.19259 47.80605 25155 ft 477 kts 155°
2026-05-03 23:19 44.16266 47.82581 25158 ft 477 kts 155°
2026-05-03 23:19 44.13266 47.84560 25161 ft 477 kts 155°
2026-05-03 23:19 44.10270 47.86535 25163 ft 477 kts 155°
2026-05-03 23:19 44.07269 47.88510 25167 ft 477 kts 155°
2026-05-03 23:20 44.04272 47.90480 25171 ft 477 kts 155°
2026-05-03 23:20 44.01272 47.92450 25173 ft 477 kts 155°
2026-05-03 23:20 43.98275 47.94416 25176 ft 477 kts 155°
2026-05-03 23:20 43.95267 47.96387 25178 ft 477 kts 155°
2026-05-03 23:21 43.92270 47.98349 25183 ft 477 kts 155°
2026-05-03 23:21 43.89272 48.00309 25185 ft 477 kts 155°
2026-05-03 23:21 43.86271 48.02269 25187 ft 477 kts 155°
2026-05-03 23:21 43.83269 48.04226 25190 ft 477 kts 155°
2026-05-03 23:22 43.77262 48.08138 25196 ft 477 kts 155°
2026-05-03 23:22 43.74259 48.10090 25199 ft 477 kts 155°
2026-05-03 23:22 43.71259 48.12039 25202 ft 477 kts 155°
2026-05-03 23:23 43.68259 48.13985 25205 ft 477 kts 155°
2026-05-03 23:23 43.65253 48.15933 25209 ft 477 kts 155°
2026-05-03 23:23 43.62249 48.17877 25213 ft 477 kts 155°
2026-05-03 23:23 43.59242 48.19821 25216 ft 477 kts 155°
2026-05-03 23:24 43.56238 48.21761 25218 ft 477 kts 155°
2026-05-03 23:24 43.53233 48.23699 25221 ft 477 kts 155°
2026-05-03 23:24 43.50229 48.25635 25223 ft 477 kts 155°
2026-05-03 23:24 43.47225 48.27569 25226 ft 477 kts 155°
2026-05-03 23:25 43.44214 48.29504 25230 ft 477 kts 155°
2026-05-03 23:25 43.41212 48.31433 25234 ft 477 kts 155°
2026-05-03 23:25 43.38206 48.33361 25236 ft 477 kts 155°
2026-05-03 23:25 43.35197 48.35289 25239 ft 477 kts 155°
2026-05-03 23:26 43.32190 48.37214 25242 ft 477 kts 155°
2026-05-03 23:26 43.29181 48.39138 25245 ft 477 kts 155°
2026-05-03 23:26 43.26174 48.41059 25249 ft 477 kts 155°
2026-05-03 23:26 43.23224 48.43127 25246 ft 477 kts 150°
2026-05-03 23:27 43.20381 48.45480 25253 ft 477 kts 148°
2026-05-03 23:27 43.17572 48.47907 25255 ft 477 kts 147°
2026-05-03 23:27 43.14788 48.50373 25259 ft 477 kts 147°
2026-05-03 23:27 43.12008 48.52861 25261 ft 477 kts 147°
2026-05-03 23:28 43.09229 48.55352 25263 ft 477 kts 147°
2026-05-03 23:28 43.06455 48.57834 25265 ft 477 kts 147°
2026-05-03 23:28 43.03673 48.60315 25269 ft 477 kts 147°
2026-05-03 23:28 43.00893 48.62785 25273 ft 477 kts 147°
2026-05-03 23:29 42.98109 48.65252 25275 ft 477 kts 147°
2026-05-03 23:29 42.95322 48.67717 25277 ft 477 kts 147°
2026-05-03 23:29 42.92535 48.70178 25280 ft 477 kts 147°
2026-05-03 23:29 42.89743 48.72641 25283 ft 477 kts 147°
2026-05-03 23:30 42.86954 48.75099 25286 ft 477 kts 147°
2026-05-03 23:30 42.84166 48.77552 25289 ft 477 kts 147°
2026-05-03 23:30 42.81378 48.80004 25293 ft 477 kts 147°
2026-05-03 23:30 42.78588 48.82455 25296 ft 477 kts 147°
2026-05-03 23:31 42.75799 48.84903 25298 ft 477 kts 147°
2026-05-03 23:31 42.73001 48.87339 25302 ft 477 kts 148°
2026-05-03 23:31 42.70178 48.89716 25303 ft 477 kts 149°
2026-05-03 23:31 42.67341 48.92060 25306 ft 477 kts 149°
2026-05-03 23:32 42.64499 48.94395 25309 ft 477 kts 149°
2026-05-03 23:32 42.61696 48.96699 25312 ft 477 kts 149°
2026-05-03 23:32 42.58821 48.99069 25315 ft 477 kts 149°
2026-05-03 23:32 42.55990 49.01409 25319 ft 477 kts 149°
2026-05-03 23:33 42.53152 49.03757 25322 ft 477 kts 149°
2026-05-03 23:33 42.50321 49.06101 25325 ft 477 kts 149°
2026-05-03 23:33 42.47488 49.08446 25327 ft 477 kts 149°
2026-05-03 23:33 42.44653 49.10789 25330 ft 477 kts 149°
2026-05-03 23:34 42.41820 49.13128 25335 ft 477 kts 149°
2026-05-03 23:34 42.38984 49.15468 25338 ft 477 kts 149°
2026-05-03 23:34 42.36151 49.17802 25340 ft 477 kts 149°
2026-05-03 23:34 42.33317 49.20134 25343 ft 477 kts 149°
2026-05-03 23:35 42.30480 49.22465 25347 ft 477 kts 149°
2026-05-03 23:35 42.27643 49.24795 25348 ft 477 kts 149°
2026-05-03 23:35 42.24781 49.27066 25344 ft 477 kts 153°
2026-05-03 23:35 42.21753 49.28904 25350 ft 477 kts 159°
2026-05-03 23:36 42.18690 49.30454 25353 ft 477 kts 160°
2026-05-03 23:36 42.15517 49.31940 25355 ft 477 kts 161°
2026-05-03 23:36 42.12370 49.33351 25357 ft 477 kts 162°
2026-05-03 23:36 42.09219 49.34739 25360 ft 477 kts 162°
2026-05-03 23:37 42.06109 49.36106 25364 ft 477 kts 162°
2026-05-03 23:37 42.02918 49.37513 25366 ft 477 kts 162°
2026-05-03 23:37 41.99806 49.38892 25368 ft 477 kts 162°
2026-05-03 23:37 41.96662 49.40291 25372 ft 477 kts 162°
2026-05-03 23:38 41.93514 49.41694 25374 ft 477 kts 162°
2026-05-03 23:38 41.90364 49.43098 25377 ft 477 kts 162°
2026-05-03 23:38 41.87213 49.44503 25380 ft 477 kts 162°
2026-05-03 23:38 41.84066 49.45904 25383 ft 477 kts 162°
2026-05-03 23:39 41.80921 49.47303 25386 ft 477 kts 162°
2026-05-03 23:39 41.77777 49.48699 25389 ft 477 kts 162°
2026-05-03 23:39 41.74628 49.50096 25392 ft 477 kts 162°
2026-05-03 23:39 41.71476 49.51492 25394 ft 477 kts 162°
2026-05-03 23:40 41.68325 49.52887 25397 ft 477 kts 162°
2026-05-03 23:40 41.65177 49.54279 25400 ft 477 kts 162°
2026-05-03 23:40 41.62030 49.55669 25403 ft 477 kts 162°
2026-05-03 23:40 41.58883 49.57057 25406 ft 477 kts 162°
2026-05-03 23:41 41.55730 49.58447 25409 ft 477 kts 162°
2026-05-03 23:41 41.52581 49.59834 25412 ft 477 kts 162°
2026-05-03 23:41 41.49429 49.61220 25415 ft 477 kts 162°
2026-05-03 23:41 41.46282 49.62603 25418 ft 477 kts 162°
2026-05-03 23:42 41.43127 49.63988 25421 ft 477 kts 162°
2026-05-03 23:42 41.39980 49.65368 25425 ft 477 kts 162°
2026-05-03 23:42 41.36830 49.66749 25427 ft 477 kts 162°
2026-05-03 23:42 41.33680 49.68127 25429 ft 477 kts 162°
2026-05-03 23:43 41.30528 49.69505 25432 ft 477 kts 162°
2026-05-03 23:43 41.27378 49.70881 25435 ft 477 kts 162°
2026-05-03 23:43 41.24224 49.72257 25438 ft 477 kts 162°
2026-05-03 23:43 41.21073 49.73630 25442 ft 477 kts 162°
2026-05-03 23:44 41.17922 49.75003 25444 ft 477 kts 162°
2026-05-03 23:44 41.14768 49.76374 25447 ft 477 kts 162°
2026-05-03 23:44 41.11622 49.77741 25449 ft 477 kts 162°
2026-05-03 23:44 41.08469 49.79112 25452 ft 477 kts 162°
2026-05-03 23:45 41.05313 49.80471 25455 ft 477 kts 162°
2026-05-03 23:45 41.02155 49.81819 25458 ft 477 kts 162°
2026-05-03 23:45 40.98999 49.83162 25460 ft 477 kts 162°
2026-05-03 23:45 40.95843 49.84504 25463 ft 477 kts 162°
2026-05-03 23:46 40.92686 49.85847 25466 ft 477 kts 162°
2026-05-03 23:46 40.89524 49.87193 25469 ft 477 kts 162°
2026-05-03 23:46 40.86371 49.88534 25472 ft 477 kts 162°
2026-05-03 23:46 40.83209 49.89879 25475 ft 477 kts 162°
2026-05-03 23:47 40.80054 49.91220 25478 ft 477 kts 162°
2026-05-03 23:47 40.76896 49.92560 25480 ft 477 kts 162°
2026-05-03 23:47 40.73739 49.93899 25483 ft 477 kts 162°
2026-05-03 23:47 40.70581 49.95237 25486 ft 477 kts 162°
2026-05-03 23:48 40.68490 49.96122 25488 ft 477 kts 162°
2026-05-03 23:48 40.65329 49.97459 25490 ft 477 kts 162°
2026-05-03 23:48 40.62176 49.98792 25493 ft 477 kts 162°
2026-05-03 23:48 40.59019 50.00124 25495 ft 477 kts 162°
2026-05-03 23:49 40.55858 50.01457 25499 ft 477 kts 162°
2026-05-03 23:49 40.52700 50.02788 25501 ft 477 kts 162°
2026-05-03 23:49 40.49544 50.04116 25504 ft 477 kts 162°
2026-05-03 23:49 40.46379 50.05447 25507 ft 477 kts 162°
2026-05-03 23:50 40.43218 50.06759 25509 ft 477 kts 163°
2026-05-03 23:50 40.40052 50.08040 25512 ft 477 kts 163°
2026-05-03 23:50 40.36875 50.09312 25514 ft 477 kts 163°
2026-05-03 23:50 40.33707 50.10577 25517 ft 477 kts 163°
2026-05-03 23:51 40.30534 50.11846 25519 ft 477 kts 163°
2026-05-03 23:51 40.27363 50.13117 25521 ft 477 kts 163°
2026-05-03 23:51 40.24193 50.14390 25525 ft 477 kts 163°
2026-05-03 23:51 40.21017 50.15667 25526 ft 477 kts 163°
2026-05-03 23:52 40.17847 50.16940 25528 ft 477 kts 163°
2026-05-03 23:52 40.14679 50.18213 25530 ft 477 kts 163°
2026-05-03 23:52 40.11507 50.19485 25531 ft 477 kts 163°
2026-05-03 23:52 40.08339 50.20755 25533 ft 477 kts 163°
2026-05-03 23:53 40.05163 50.22026 25535 ft 477 kts 163°
2026-05-03 23:53 40.01997 50.23292 25537 ft 477 kts 163°
2026-05-03 23:53 39.98826 50.24559 25539 ft 477 kts 163°
2026-05-03 23:53 39.95657 50.25823 25542 ft 477 kts 163°
2026-05-03 23:54 39.92482 50.27089 25543 ft 477 kts 163°
2026-05-03 23:54 39.89313 50.28351 25544 ft 477 kts 163°
2026-05-03 23:54 39.86140 50.29614 25546 ft 477 kts 163°
2026-05-03 23:54 39.82967 50.30876 25547 ft 477 kts 163°
2026-05-03 23:55 39.79797 50.32143 25549 ft 477 kts 163°
2026-05-03 23:55 39.76627 50.33409 25550 ft 477 kts 163°
2026-05-03 23:55 39.73457 50.34673 25552 ft 477 kts 163°
2026-05-03 23:55 39.70288 50.35935 25554 ft 477 kts 163°
2026-05-03 23:56 39.67117 50.37196 25556 ft 477 kts 163°
2026-05-03 23:56 39.63945 50.38457 25557 ft 477 kts 163°
2026-05-03 23:56 39.60777 50.39715 25559 ft 477 kts 163°
2026-05-03 23:56 39.57607 50.40972 25560 ft 477 kts 163°
2026-05-03 23:57 39.54440 50.42228 25562 ft 477 kts 163°
2026-05-03 23:57 39.51267 50.43484 25563 ft 477 kts 163°
2026-05-03 23:57 39.48098 50.44738 25565 ft 476 kts 163°
2026-05-03 23:57 39.44926 50.45992 25566 ft 476 kts 163°
2026-05-03 23:58 39.41758 50.47243 25566 ft 476 kts 163°
2026-05-03 23:58 39.38584 50.48495 25567 ft 476 kts 163°
2026-05-03 23:58 39.35416 50.49744 25568 ft 476 kts 163°
2026-05-03 23:58 39.32243 50.50993 25569 ft 476 kts 163°
2026-05-03 23:59 39.29069 50.52242 25569 ft 476 kts 163°
2026-05-03 23:59 39.25902 50.53486 25571 ft 476 kts 163°
2026-05-03 23:59 39.22728 50.54733 25571 ft 476 kts 163°
2026-05-03 23:59 39.19556 50.55977 25570 ft 476 kts 163°
2026-05-04 00:00 39.16391 50.57217 25571 ft 476 kts 163°
2026-05-04 00:00 39.13221 50.58459 25571 ft 476 kts 163°
2026-05-04 00:00 39.10046 50.59701 25572 ft 476 kts 163°
2026-05-04 00:00 39.06878 50.60939 25573 ft 476 kts 163°
2026-05-04 00:01 39.03705 50.62177 25574 ft 476 kts 163°
2026-05-04 00:01 39.00535 50.63414 25574 ft 476 kts 163°
2026-05-04 00:01 38.97362 50.64650 25575 ft 476 kts 163°
2026-05-04 00:01 38.94194 50.65884 25576 ft 476 kts 163°
2026-05-04 00:02 38.91022 50.67118 25577 ft 476 kts 163°
2026-05-04 00:02 38.87848 50.68351 25578 ft 476 kts 163°
2026-05-04 00:02 38.84675 50.69585 25579 ft 476 kts 163°
2026-05-04 00:02 38.81504 50.70805 25580 ft 476 kts 163°
2026-05-04 00:03 38.78332 50.72017 25581 ft 476 kts 163°
2026-05-04 00:03 38.75158 50.73227 25582 ft 476 kts 163°
2026-05-04 00:03 38.71983 50.74437 25583 ft 476 kts 163°
2026-05-04 00:03 38.68805 50.75648 25585 ft 476 kts 163°
2026-05-04 00:04 38.65630 50.76858 25587 ft 476 kts 163°
2026-05-04 00:04 38.62456 50.78068 25589 ft 476 kts 163°
2026-05-04 00:04 38.59282 50.79277 25590 ft 476 kts 163°
2026-05-04 00:04 38.56108 50.80485 25591 ft 476 kts 163°
2026-05-04 00:05 38.52932 50.81694 25592 ft 476 kts 163°
2026-05-04 00:05 38.49758 50.82900 25593 ft 476 kts 163°
2026-05-04 00:05 38.46585 50.84104 25595 ft 476 kts 163°
2026-05-04 00:05 38.43411 50.85308 25596 ft 476 kts 163°
2026-05-04 00:06 38.40233 50.86513 25598 ft 476 kts 163°
2026-05-04 00:06 38.37060 50.87714 25599 ft 476 kts 163°
2026-05-04 00:06 38.33884 50.88915 25601 ft 476 kts 163°
2026-05-04 00:06 38.30710 50.90115 25602 ft 476 kts 163°
2026-05-04 00:07 38.27532 50.91314 25605 ft 476 kts 163°
2026-05-04 00:07 38.24358 50.92512 25606 ft 476 kts 163°
2026-05-04 00:07 38.21187 50.93707 25607 ft 476 kts 163°
2026-05-04 00:07 38.18009 50.94903 25608 ft 476 kts 163°
2026-05-04 00:08 38.14836 50.96097 25610 ft 476 kts 163°
2026-05-04 00:08 38.11664 50.97289 25611 ft 476 kts 163°
2026-05-04 00:08 38.08485 50.98483 25613 ft 476 kts 163°
2026-05-04 00:08 38.05311 50.99674 25615 ft 476 kts 163°
2026-05-04 00:09 38.02134 51.00865 25617 ft 476 kts 163°
2026-05-04 00:09 37.98956 51.02055 25618 ft 476 kts 164°
2026-05-04 00:09 37.95772 51.03197 25619 ft 476 kts 165°
2026-05-04 00:09 37.92578 51.04280 25621 ft 476 kts 165°
2026-05-04 00:10 37.89370 51.05344 25623 ft 476 kts 166°
2026-05-04 00:10 37.86172 51.06401 25625 ft 476 kts 166°
2026-05-04 00:10 37.82970 51.07465 25627 ft 476 kts 165°
2026-05-04 00:10 37.79770 51.08536 25629 ft 476 kts 165°
2026-05-04 00:11 37.76571 51.09612 25631 ft 476 kts 165°
2026-05-04 00:11 37.73371 51.10692 25633 ft 476 kts 165°
2026-05-04 00:11 37.70172 51.11777 25634 ft 476 kts 165°
2026-05-04 00:11 37.66977 51.12860 25637 ft 476 kts 165°
2026-05-04 00:12 37.63781 51.13941 25639 ft 476 kts 165°
2026-05-04 00:12 37.60581 51.15020 25640 ft 476 kts 165°
2026-05-04 00:12 37.57404 51.16091 25642 ft 476 kts 165°
2026-05-04 00:12 37.54208 51.17167 25645 ft 476 kts 165°
2026-05-04 00:13 37.51007 51.18244 25647 ft 476 kts 165°
2026-05-04 00:13 37.47813 51.19318 25648 ft 476 kts 165°
2026-05-04 00:13 37.44617 51.20392 25650 ft 476 kts 165°
2026-05-04 00:13 37.41415 51.21467 25653 ft 476 kts 165°
2026-05-04 00:14 37.38218 51.22540 25655 ft 476 kts 165°
2026-05-04 00:14 37.35021 51.23611 25656 ft 476 kts 165°
2026-05-04 00:14 37.31821 51.24683 25659 ft 476 kts 165°
2026-05-04 00:14 37.28623 51.25753 25661 ft 476 kts 165°
2026-05-04 00:15 37.25425 51.26822 25663 ft 476 kts 165°
2026-05-04 00:15 37.22230 51.27889 25665 ft 476 kts 165°
2026-05-04 00:15 37.19026 51.28958 25667 ft 476 kts 165°
2026-05-04 00:15 37.15827 51.30025 25669 ft 476 kts 165°
2026-05-04 00:16 37.12635 51.31088 25672 ft 476 kts 165°
2026-05-04 00:16 37.09430 51.32154 25674 ft 476 kts 165°
2026-05-04 00:16 37.06231 51.33218 25676 ft 476 kts 165°
2026-05-04 00:16 37.03033 51.34281 25678 ft 476 kts 165°
2026-05-04 00:17 36.99841 51.35340 25680 ft 476 kts 165°
2026-05-04 00:17 36.96639 51.36402 25682 ft 476 kts 165°
2026-05-04 00:17 36.93436 51.37463 25685 ft 476 kts 165°
2026-05-04 00:17 36.90243 51.38521 25687 ft 476 kts 165°
2026-05-04 00:18 36.87043 51.39579 25689 ft 476 kts 165°
2026-05-04 00:18 36.83841 51.40637 25691 ft 476 kts 165°
2026-05-04 00:18 36.80643 51.41694 25694 ft 476 kts 165°
2026-05-04 00:18 36.77443 51.42749 25696 ft 476 kts 165°
2026-05-04 00:19 36.74240 51.43805 25698 ft 476 kts 165°
2026-05-04 00:19 36.71045 51.44859 25700 ft 476 kts 165°
2026-05-04 00:19 36.67900 51.46145 25695 ft 476 kts 158°
2026-05-04 00:19 36.64924 51.47943 25694 ft 476 kts 149°
2026-05-04 00:20 36.62133 51.50167 25699 ft 476 kts 146°
2026-05-04 00:20 36.59420 51.52526 25701 ft 476 kts 144°
2026-05-04 00:20 36.56740 51.54959 25705 ft 476 kts 144°
2026-05-04 00:20 36.54078 51.57417 25712 ft 477 kts 143°
2026-05-04 00:21 36.51421 51.59873 25715 ft 477 kts 143°
2026-05-04 00:21 36.48755 51.62326 25715 ft 477 kts 144°
2026-05-04 00:21 36.46082 51.64770 25717 ft 477 kts 144°
2026-05-04 00:21 36.43410 51.67201 25718 ft 477 kts 144°
2026-05-04 00:22 36.40733 51.69626 25725 ft 476 kts 144°
2026-05-04 00:22 36.38052 51.72049 25731 ft 476 kts 144°
2026-05-04 00:22 36.35373 51.74467 25738 ft 477 kts 144°
2026-05-04 00:22 36.32692 51.76884 25745 ft 476 kts 144°
2026-05-04 00:23 36.30009 51.79301 25746 ft 477 kts 144°
2026-05-04 00:23 36.27327 51.81716 25754 ft 477 kts 144°
2026-05-04 00:23 36.24645 51.84129 25757 ft 477 kts 144°
2026-05-04 00:23 36.21963 51.86540 25762 ft 477 kts 144°
2026-05-04 00:24 36.19280 51.88951 25765 ft 477 kts 144°
2026-05-04 00:24 36.16593 51.91363 25768 ft 477 kts 144°
2026-05-04 00:24 36.13912 51.93768 25767 ft 477 kts 144°
2026-05-04 00:24 36.11222 51.96178 25772 ft 477 kts 144°
2026-05-04 00:25 36.08537 51.98582 25772 ft 477 kts 144°
2026-05-04 00:25 36.05852 52.00984 25773 ft 477 kts 144°
2026-05-04 00:25 36.03163 52.03387 25772 ft 477 kts 144°
2026-05-04 00:25 36.00480 52.05783 25780 ft 477 kts 144°
2026-05-04 00:26 35.97792 52.08181 25783 ft 477 kts 144°
2026-05-04 00:26 35.95100 52.10581 25787 ft 477 kts 144°
2026-05-04 00:26 35.92415 52.12972 25796 ft 477 kts 144°
2026-05-04 00:26 35.89724 52.15368 25804 ft 477 kts 144°
2026-05-04 00:27 35.87035 52.17758 25811 ft 477 kts 144°
2026-05-04 00:27 35.84347 52.20146 25811 ft 477 kts 144°
2026-05-04 00:27 35.81652 52.22538 25814 ft 477 kts 144°
2026-05-04 00:27 35.78961 52.24925 25817 ft 477 kts 144°
2026-05-04 00:28 35.76268 52.27310 25816 ft 477 kts 144°
2026-05-04 00:28 35.73572 52.29697 25820 ft 477 kts 144°
2026-05-04 00:28 35.70880 52.32078 25826 ft 477 kts 144°
2026-05-04 00:28 35.68189 52.34457 25827 ft 477 kts 144°
2026-05-04 00:29 35.65494 52.36837 25831 ft 477 kts 144°
2026-05-04 00:29 35.62799 52.39215 25833 ft 477 kts 144°
2026-05-04 00:29 35.60107 52.41588 25835 ft 477 kts 144°
2026-05-04 00:29 35.57408 52.43966 25839 ft 477 kts 144°
2026-05-04 00:30 35.54712 52.46339 25849 ft 477 kts 144°
2026-05-04 00:30 35.52925 52.47910 25852 ft 477 kts 144°
2026-05-04 00:30 35.50232 52.50278 25851 ft 477 kts 144°
2026-05-04 00:30 35.47536 52.52645 25854 ft 477 kts 144°
2026-05-04 00:31 35.44835 52.55015 25858 ft 477 kts 144°
2026-05-04 00:31 35.42141 52.57377 25864 ft 477 kts 144°
2026-05-04 00:31 35.39439 52.59744 25870 ft 477 kts 144°
2026-05-04 00:31 35.36740 52.62105 25873 ft 477 kts 144°
2026-05-04 00:32 35.34037 52.64470 25873 ft 477 kts 144°
2026-05-04 00:32 35.31336 52.66830 25876 ft 477 kts 144°
2026-05-04 00:32 35.28638 52.69185 25879 ft 477 kts 144°
2026-05-04 00:32 35.25909 52.71491 25875 ft 477 kts 148°
2026-05-04 00:33 35.23067 52.73579 25878 ft 477 kts 150°
2026-05-04 00:33 35.17309 52.77596 25881 ft 477 kts 151°
2026-05-04 00:33 35.14411 52.79572 25883 ft 476 kts 151°
2026-05-04 00:34 35.11514 52.81539 25884 ft 476 kts 151°
2026-05-04 00:34 35.08616 52.83506 25885 ft 476 kts 151°
2026-05-04 00:34 35.05722 52.85472 25887 ft 476 kts 151°
2026-05-04 00:34 35.02825 52.87442 25891 ft 476 kts 151°
2026-05-04 00:35 34.99931 52.89411 25892 ft 476 kts 151°
2026-05-04 00:35 34.97034 52.91383 25893 ft 476 kts 151°
2026-05-04 00:35 34.94142 52.93351 25895 ft 476 kts 151°
2026-05-04 00:35 34.91246 52.95319 25897 ft 476 kts 151°
2026-05-04 00:36 34.88353 52.97284 25900 ft 476 kts 151°
2026-05-04 00:36 34.85455 52.99251 25906 ft 476 kts 151°
2026-05-04 00:36 34.82559 53.01215 25910 ft 476 kts 151°
2026-05-04 00:36 34.79661 53.03178 25912 ft 476 kts 151°
2026-05-04 00:37 34.76765 53.05138 25914 ft 476 kts 151°
2026-05-04 00:37 34.73870 53.07096 25916 ft 476 kts 151°
2026-05-04 00:37 34.70970 53.09055 25919 ft 476 kts 151°
2026-05-04 00:37 34.68076 53.11009 25920 ft 476 kts 151°
2026-05-04 00:38 34.65179 53.12963 25921 ft 476 kts 151°
2026-05-04 00:38 34.62277 53.14919 25923 ft 476 kts 151°
2026-05-04 00:38 34.59381 53.16870 25924 ft 476 kts 151°
2026-05-04 00:38 34.56484 53.18820 25926 ft 476 kts 151°
2026-05-04 00:39 34.53585 53.20770 25928 ft 476 kts 151°
2026-05-04 00:39 34.50683 53.22719 25930 ft 476 kts 151°
2026-05-04 00:39 34.47784 53.24666 25931 ft 476 kts 151°
2026-05-04 00:39 34.44883 53.26612 25933 ft 476 kts 151°
2026-05-04 00:40 34.41987 53.28554 25935 ft 476 kts 151°
2026-05-04 00:40 34.39085 53.30497 25936 ft 476 kts 151°
2026-05-04 00:40 34.36186 53.32438 25938 ft 476 kts 151°
2026-05-04 00:40 34.33283 53.34379 25940 ft 476 kts 151°
2026-05-04 00:41 34.30384 53.36316 25942 ft 476 kts 151°
2026-05-04 00:41 34.27483 53.38253 25944 ft 476 kts 151°
2026-05-04 00:41 34.24579 53.40190 25946 ft 476 kts 151°
2026-05-04 00:41 34.21679 53.42123 25947 ft 476 kts 151°
2026-05-04 00:42 34.18776 53.44056 25949 ft 476 kts 151°
2026-05-04 00:42 34.15873 53.45988 25952 ft 476 kts 151°
2026-05-04 00:42 34.12970 53.47919 25954 ft 476 kts 151°
2026-05-04 00:42 34.10066 53.49849 25956 ft 476 kts 151°
2026-05-04 00:43 34.07167 53.51774 25957 ft 476 kts 151°
2026-05-04 00:43 34.04262 53.53701 25959 ft 476 kts 151°
2026-05-04 00:43 34.01361 53.55624 25962 ft 476 kts 151°
2026-05-04 00:43 33.98456 53.57549 25964 ft 476 kts 151°
2026-05-04 00:44 33.95551 53.59471 25966 ft 476 kts 151°
2026-05-04 00:44 33.92645 53.61393 25968 ft 476 kts 152°
2026-05-04 00:44 33.89743 53.63311 25970 ft 476 kts 152°
2026-05-04 00:44 33.86838 53.65229 25972 ft 476 kts 152°
2026-05-04 00:45 33.83933 53.67146 25974 ft 476 kts 152°
2026-05-04 00:45 33.81026 53.69062 25976 ft 476 kts 152°
2026-05-04 00:45 33.78123 53.70975 25978 ft 476 kts 152°
2026-05-04 00:45 33.75215 53.72889 25981 ft 476 kts 152°
2026-05-04 00:46 33.72307 53.74802 25983 ft 476 kts 152°
2026-05-04 00:46 33.69404 53.76710 25985 ft 476 kts 152°
2026-05-04 00:46 33.66493 53.78621 25987 ft 476 kts 152°
2026-05-04 00:46 33.63591 53.80526 25990 ft 476 kts 152°
2026-05-04 00:47 33.60683 53.82432 25992 ft 476 kts 152°
2026-05-04 00:47 33.57774 53.84339 25993 ft 476 kts 152°
2026-05-04 00:47 33.54846 53.86196 25989 ft 476 kts 155°
2026-05-04 00:47 33.51767 53.87643 25987 ft 476 kts 163°
2026-05-04 00:48 33.48556 53.88618 25991 ft 475 kts 168°
2026-05-04 00:48 33.45318 53.89425 25992 ft 475 kts 169°
2026-05-04 00:48 33.42065 53.90146 25993 ft 475 kts 170°
2026-05-04 00:48 33.38807 53.90828 25995 ft 475 kts 170°
2026-05-04 00:49 33.35551 53.91500 25998 ft 475 kts 170°
2026-05-04 00:49 33.32293 53.92176 26000 ft 475 kts 170°
2026-05-04 00:49 33.29037 53.92860 26003 ft 475 kts 170°
2026-05-04 00:49 33.25779 53.93552 26008 ft 475 kts 170°
2026-05-04 00:50 33.22523 53.94249 26010 ft 475 kts 170°
2026-05-04 00:50 33.19268 53.94949 26013 ft 475 kts 170°
2026-05-04 00:50 33.16018 53.95689 26015 ft 475 kts 169°
2026-05-04 00:50 33.12780 53.96496 26017 ft 475 kts 168°
2026-05-04 00:51 33.09548 53.97331 26019 ft 475 kts 168°
2026-05-04 00:51 33.06316 53.98171 26022 ft 475 kts 168°
2026-05-04 00:51 33.03087 53.99004 26024 ft 475 kts 168°
2026-05-04 00:51 32.99852 53.99830 26026 ft 475 kts 168°
2026-05-04 00:52 32.96614 54.00649 26029 ft 475 kts 168°
2026-05-04 00:52 32.93374 54.01463 26031 ft 475 kts 168°
2026-05-04 00:52 32.90141 54.02272 26034 ft 475 kts 168°
2026-05-04 00:52 32.86906 54.03080 26036 ft 475 kts 168°
2026-05-04 00:53 32.83665 54.03896 26038 ft 475 kts 168°
2026-05-04 00:53 32.80438 54.04739 26040 ft 475 kts 167°
2026-05-04 00:53 32.77209 54.05601 26043 ft 475 kts 167°
2026-05-04 00:53 32.73981 54.06468 26046 ft 475 kts 167°
2026-05-04 00:54 32.70753 54.07334 26048 ft 475 kts 167°
2026-05-04 00:54 32.67525 54.08196 26051 ft 475 kts 167°
2026-05-04 00:54 32.64296 54.09055 26053 ft 475 kts 167°
2026-05-04 00:54 32.61073 54.09909 26055 ft 475 kts 167°
2026-05-04 00:55 32.57843 54.10763 26058 ft 475 kts 168°
2026-05-04 00:55 32.54615 54.11616 26061 ft 475 kts 168°
2026-05-04 00:55 32.51381 54.12469 26063 ft 475 kts 168°
2026-05-04 00:55 32.48158 54.13319 26066 ft 475 kts 168°
2026-05-04 00:56 32.44928 54.14170 26069 ft 475 kts 168°
2026-05-04 00:56 32.41700 54.15020 26071 ft 475 kts 168°
2026-05-04 00:56 32.38471 54.15870 26074 ft 475 kts 168°
2026-05-04 00:56 32.35240 54.16717 26076 ft 475 kts 168°
2026-05-04 00:57 32.32009 54.17546 26079 ft 475 kts 168°
2026-05-04 00:57 32.28773 54.18367 26081 ft 475 kts 168°
2026-05-04 00:57 32.25543 54.19184 26085 ft 475 kts 168°
2026-05-04 00:57 32.22303 54.20005 26087 ft 475 kts 168°
2026-05-04 00:58 32.19071 54.20825 26090 ft 475 kts 168°
2026-05-04 00:58 32.15840 54.21646 26092 ft 475 kts 168°
2026-05-04 00:58 32.12605 54.22469 26096 ft 475 kts 168°
2026-05-04 00:58 32.09372 54.23291 26100 ft 475 kts 168°
2026-05-04 00:59 32.06137 54.24114 26102 ft 475 kts 168°
2026-05-04 00:59 32.02903 54.24936 26105 ft 475 kts 168°
2026-05-04 00:59 31.99670 54.25757 26107 ft 475 kts 168°
2026-05-04 00:59 31.96437 54.26577 26110 ft 475 kts 168°
2026-05-04 01:00 31.93201 54.27399 26111 ft 475 kts 168°
2026-05-04 01:00 31.90022 54.28472 26106 ft 476 kts 160°
2026-05-04 01:00 31.86980 54.29997 26111 ft 476 kts 155°
2026-05-04 01:00 31.83995 54.31680 26113 ft 476 kts 154°
2026-05-04 01:01 31.81040 54.33437 26116 ft 476 kts 153°
2026-05-04 01:01 31.78101 54.35226 26118 ft 476 kts 153°
2026-05-04 01:01 31.75160 54.37029 26119 ft 476 kts 153°
2026-05-04 01:01 31.72223 54.38826 26122 ft 476 kts 153°
2026-05-04 01:02 31.69283 54.40614 26124 ft 476 kts 153°
2026-05-04 01:02 31.66342 54.42394 26125 ft 476 kts 153°
2026-05-04 01:02 31.63395 54.44171 26131 ft 476 kts 153°
2026-05-04 01:02 31.60447 54.45943 26134 ft 476 kts 153°
2026-05-04 01:03 31.57499 54.47712 26136 ft 476 kts 153°
2026-05-04 01:03 31.54552 54.49479 26138 ft 476 kts 153°
2026-05-04 01:03 31.51607 54.51245 26141 ft 476 kts 153°
2026-05-04 01:03 31.48656 54.53012 26145 ft 476 kts 153°
2026-05-04 01:04 31.45707 54.54778 26147 ft 476 kts 153°
2026-05-04 01:04 31.42761 54.56546 26149 ft 476 kts 153°
2026-05-04 01:04 31.39815 54.58313 26151 ft 476 kts 153°
2026-05-04 01:04 31.36867 54.60078 26157 ft 476 kts 153°
2026-05-04 01:05 31.33919 54.61841 26159 ft 476 kts 153°
2026-05-04 01:05 31.30967 54.63605 26163 ft 476 kts 153°
2026-05-04 01:05 31.28016 54.65368 26166 ft 476 kts 153°
2026-05-04 01:05 31.25072 54.67125 26168 ft 476 kts 153°
2026-05-04 01:06 31.22121 54.68886 26171 ft 476 kts 153°
2026-05-04 01:06 31.19169 54.70646 26174 ft 476 kts 153°
2026-05-04 01:06 31.16219 54.72405 26177 ft 476 kts 153°
2026-05-04 01:06 31.13269 54.74161 26182 ft 476 kts 153°
2026-05-04 01:07 31.10320 54.75916 26186 ft 476 kts 153°
2026-05-04 01:07 31.07372 54.77670 26189 ft 476 kts 153°
2026-05-04 01:07 31.04420 54.79424 26192 ft 476 kts 153°
2026-05-04 01:07 31.01468 54.81177 26194 ft 476 kts 153°
2026-05-04 01:08 30.98517 54.82928 26197 ft 476 kts 153°
2026-05-04 01:08 30.95565 54.84679 26200 ft 476 kts 153°
2026-05-04 01:08 30.92613 54.86428 26203 ft 476 kts 153°
2026-05-04 01:08 30.89663 54.88175 26205 ft 476 kts 153°
2026-05-04 01:09 30.86708 54.89923 26207 ft 476 kts 153°
2026-05-04 01:09 30.83754 54.91670 26209 ft 476 kts 153°
2026-05-04 01:09 30.80801 54.93416 26211 ft 476 kts 153°
2026-05-04 01:09 30.77847 54.95160 26214 ft 476 kts 153°
2026-05-04 01:10 30.74892 54.96906 26216 ft 476 kts 153°
2026-05-04 01:10 30.72938 54.98059 26217 ft 476 kts 153°
2026-05-04 01:10 30.69982 54.99796 26219 ft 476 kts 153°
2026-05-04 01:10 30.67024 55.01528 26222 ft 476 kts 153°
2026-05-04 01:11 30.64072 55.03254 26224 ft 476 kts 153°
2026-05-04 01:11 30.61110 55.04985 26226 ft 476 kts 153°
2026-05-04 01:11 30.58152 55.06714 26229 ft 476 kts 153°
2026-05-04 01:11 30.55196 55.08442 26233 ft 476 kts 153°
2026-05-04 01:12 30.52234 55.10172 26236 ft 476 kts 153°
2026-05-04 01:12 30.49281 55.11897 26238 ft 476 kts 153°
2026-05-04 01:12 30.46316 55.13627 26239 ft 476 kts 153°
2026-05-04 01:12 30.43359 55.15352 26245 ft 476 kts 153°
2026-05-04 01:13 30.40400 55.17076 26248 ft 476 kts 153°
2026-05-04 01:13 30.37445 55.18798 26251 ft 476 kts 153°
2026-05-04 01:13 30.34483 55.20522 26256 ft 476 kts 153°
2026-05-04 01:13 30.31522 55.22244 26259 ft 476 kts 153°
2026-05-04 01:14 30.28566 55.23962 26263 ft 476 kts 153°
2026-05-04 01:14 30.25601 55.25684 26269 ft 476 kts 154°
2026-05-04 01:14 30.22637 55.27405 26272 ft 476 kts 154°
2026-05-04 01:14 30.19677 55.29122 26275 ft 476 kts 154°
2026-05-04 01:15 30.16716 55.30838 26278 ft 476 kts 154°
2026-05-04 01:15 30.13756 55.32553 26280 ft 476 kts 154°
2026-05-04 01:15 30.10795 55.34267 26282 ft 476 kts 154°
2026-05-04 01:15 30.07834 55.35979 26285 ft 476 kts 154°
2026-05-04 01:16 30.04867 55.37695 26287 ft 476 kts 154°
2026-05-04 01:16 30.01908 55.39405 26289 ft 476 kts 154°
2026-05-04 01:16 29.98945 55.41118 26290 ft 476 kts 154°
2026-05-04 01:16 29.95980 55.42831 26292 ft 476 kts 154°
2026-05-04 01:17 29.93022 55.44538 26295 ft 476 kts 154°
2026-05-04 01:17 29.90057 55.46247 26297 ft 476 kts 154°
2026-05-04 01:17 29.87093 55.47955 26299 ft 476 kts 154°
2026-05-04 01:17 29.84132 55.49661 26302 ft 476 kts 154°
2026-05-04 01:18 29.81163 55.51370 26305 ft 476 kts 154°
2026-05-04 01:18 29.78201 55.53074 26307 ft 476 kts 154°
2026-05-04 01:18 29.75240 55.54776 26309 ft 476 kts 154°
2026-05-04 01:18 29.72272 55.56481 26312 ft 476 kts 154°
2026-05-04 01:19 29.69312 55.58180 26314 ft 476 kts 154°
2026-05-04 01:19 29.66347 55.59881 26316 ft 476 kts 154°
2026-05-04 01:19 29.63383 55.61581 26318 ft 476 kts 154°
2026-05-04 01:19 29.60414 55.63282 26321 ft 476 kts 154°
2026-05-04 01:20 29.57438 55.64958 26319 ft 476 kts 156°
2026-05-04 01:20 29.54344 55.66298 26320 ft 476 kts 162°
2026-05-04 01:20 29.51179 55.67404 26322 ft 476 kts 164°
2026-05-04 01:20 29.47988 55.68432 26324 ft 476 kts 165°
2026-05-04 01:21 29.44794 55.69412 26326 ft 476 kts 165°
2026-05-04 01:21 29.41592 55.70376 26328 ft 476 kts 166°
2026-05-04 01:21 29.38392 55.71335 26331 ft 476 kts 166°
2026-05-04 01:21 29.35187 55.72300 26333 ft 476 kts 165°
2026-05-04 01:22 29.31986 55.73268 26336 ft 476 kts 165°
2026-05-04 01:22 29.28788 55.74240 26337 ft 476 kts 165°
2026-05-04 01:22 29.25592 55.75214 26339 ft 476 kts 165°
2026-05-04 01:22 29.22393 55.76190 26341 ft 476 kts 165°
2026-05-04 01:23 29.19196 55.77165 26344 ft 476 kts 165°
2026-05-04 01:23 29.15996 55.78140 26346 ft 476 kts 165°
2026-05-04 01:23 29.12797 55.79115 26349 ft 476 kts 165°
2026-05-04 01:23 29.09600 55.80088 26351 ft 476 kts 165°
2026-05-04 01:24 29.06400 55.81061 26352 ft 476 kts 165°
2026-05-04 01:24 29.03202 55.82033 26354 ft 476 kts 165°
2026-05-04 01:24 29.00002 55.83005 26357 ft 476 kts 165°
2026-05-04 01:24 28.96806 55.83974 26359 ft 476 kts 165°
2026-05-04 01:25 28.93606 55.84945 26361 ft 476 kts 165°
2026-05-04 01:25 28.90408 55.85914 26363 ft 476 kts 165°
2026-05-04 01:25 28.87206 55.86884 26365 ft 476 kts 165°
2026-05-04 01:25 28.84009 55.87855 26367 ft 476 kts 165°
2026-05-04 01:26 28.80811 55.88824 26369 ft 476 kts 165°
2026-05-04 01:26 28.77611 55.89789 26374 ft 476 kts 165°
2026-05-04 01:26 28.74408 55.90754 26379 ft 476 kts 165°
2026-05-04 01:26 28.71212 55.91716 26382 ft 476 kts 165°
2026-05-04 01:27 28.68012 55.92678 26384 ft 476 kts 165°
2026-05-04 01:27 28.64810 55.93642 26387 ft 476 kts 165°
2026-05-04 01:27 28.61611 55.94605 26389 ft 476 kts 165°
2026-05-04 01:27 28.58408 55.95568 26392 ft 476 kts 165°
2026-05-04 01:28 28.55208 55.96530 26394 ft 476 kts 165°
2026-05-04 01:28 28.52006 55.97492 26396 ft 476 kts 165°
2026-05-04 01:28 28.48807 55.98453 26398 ft 476 kts 165°
2026-05-04 01:28 28.45607 55.99413 26400 ft 476 kts 165°
2026-05-04 01:29 28.42403 56.00374 26403 ft 476 kts 165°
2026-05-04 01:29 28.39205 56.01332 26405 ft 476 kts 165°
2026-05-04 01:29 28.36007 56.02290 26409 ft 476 kts 165°
2026-05-04 01:29 28.32806 56.03248 26412 ft 476 kts 165°
2026-05-04 01:30 28.29599 56.04208 26414 ft 476 kts 165°
2026-05-04 01:30 28.26401 56.05164 26418 ft 476 kts 165°
2026-05-04 01:30 28.23200 56.06120 26421 ft 476 kts 165°
2026-05-04 01:30 28.19990 56.07053 26418 ft 476 kts 168°
2026-05-04 01:31 28.16726 56.07631 26416 ft 475 kts 175°
2026-05-04 01:31 28.13425 56.07668 26419 ft 475 kts 183°
2026-05-04 01:31 28.10126 56.07413 26420 ft 475 kts 185°
2026-05-04 01:31 28.06839 56.07045 26421 ft 475 kts 186°
2026-05-04 01:32 28.03553 56.06621 26424 ft 475 kts 187°
2026-05-04 01:32 28.00273 56.06179 26431 ft 475 kts 187°
2026-05-04 01:32 27.96988 56.05738 26434 ft 475 kts 187°
2026-05-04 01:32 27.93704 56.05306 26438 ft 475 kts 187°
2026-05-04 01:33 27.90424 56.04883 26441 ft 475 kts 186°
2026-05-04 01:33 27.87138 56.04467 26443 ft 475 kts 186°
2026-05-04 01:33 27.83853 56.04056 26448 ft 475 kts 186°
2026-05-04 01:33 27.80567 56.03646 26454 ft 475 kts 186°
2026-05-04 01:34 27.77284 56.03238 26456 ft 475 kts 186°
2026-05-04 01:34 27.73997 56.02829 26456 ft 475 kts 186°
2026-05-04 01:34 27.70709 56.02421 26463 ft 475 kts 186°
2026-05-04 01:34 27.67424 56.02012 26466 ft 475 kts 186°
2026-05-04 01:35 27.64135 56.01603 26473 ft 475 kts 186°
2026-05-04 01:35 27.60853 56.01195 26477 ft 475 kts 186°
2026-05-04 01:35 27.57564 56.00787 26479 ft 475 kts 186°
2026-05-04 01:35 27.54279 56.00379 26481 ft 475 kts 186°
2026-05-04 01:36 27.50991 55.99971 26483 ft 475 kts 186°
2026-05-04 01:36 27.47706 55.99563 26485 ft 475 kts 186°
2026-05-04 01:36 27.44461 55.99161 26487 ft 475 kts 186°
2026-05-04 01:36 27.41176 55.98754 26491 ft 475 kts 186°
2026-05-04 01:37 27.37848 55.98342 26495 ft 475 kts 186°
2026-05-04 01:37 27.34602 55.97941 26496 ft 475 kts 186°
2026-05-04 01:37 27.31276 55.97529 26499 ft 475 kts 186°
2026-05-04 01:37 27.27981 55.97122 26500 ft 475 kts 186°
2026-05-04 01:38 27.24742 55.96722 26502 ft 475 kts 186°
2026-05-04 01:38 27.21453 55.96316 26504 ft 475 kts 186°
2026-05-04 01:38 27.18170 55.95911 26506 ft 475 kts 186°
2026-05-04 01:38 27.14883 55.95506 26509 ft 475 kts 186°
2026-05-04 01:39 27.11550 55.95096 26513 ft 475 kts 186°
2026-05-04 01:39 27.08264 55.94691 26515 ft 475 kts 186°
2026-05-04 01:39 27.04981 55.94287 26518 ft 475 kts 186°
2026-05-04 01:39 27.01694 55.93882 26519 ft 475 kts 186°
2026-05-04 01:40 26.98408 55.93479 26521 ft 475 kts 186°
2026-05-04 01:40 26.95121 55.93075 26523 ft 475 kts 186°
2026-05-04 01:40 26.91836 55.92671 26525 ft 475 kts 186°
2026-05-04 01:40 26.88543 55.92267 26527 ft 475 kts 186°
2026-05-04 01:41 26.85259 55.91865 26530 ft 475 kts 186°
2026-05-04 01:41 26.81975 55.91462 26531 ft 475 kts 186°
2026-05-04 01:41 26.78686 55.91059 26533 ft 475 kts 186°
2026-05-04 01:41 26.75394 55.90655 26535 ft 475 kts 186°
2026-05-04 01:42 26.72128 55.90125 26535 ft 475 kts 190°
2026-05-04 01:42 26.68877 55.89440 26538 ft 475 kts 191°
2026-05-04 01:42 26.65640 55.88697 26540 ft 475 kts 192°
2026-05-04 01:42 26.62399 55.87946 26542 ft 475 kts 192°
2026-05-04 01:43 26.59161 55.87212 26544 ft 475 kts 191°
2026-05-04 01:43 26.55922 55.86499 26546 ft 475 kts 191°
2026-05-04 01:43 26.52672 55.85802 26548 ft 475 kts 191°
2026-05-04 01:43 26.49427 55.85116 26550 ft 475 kts 191°
2026-05-04 01:44 26.46180 55.84437 26552 ft 475 kts 191°
2026-05-04 01:44 26.42929 55.83759 26554 ft 475 kts 191°
2026-05-04 01:44 26.39678 55.83082 26556 ft 475 kts 191°
2026-05-04 01:44 26.36429 55.82405 26558 ft 475 kts 191°
2026-05-04 01:45 26.33185 55.81729 26560 ft 475 kts 191°
2026-05-04 01:45 26.29931 55.81050 26562 ft 475 kts 191°
2026-05-04 01:45 26.23434 55.79695 26566 ft 475 kts 191°
2026-05-04 01:46 26.20163 55.79182 26560 ft 475 kts 184°
2026-05-04 01:46 26.16859 55.79133 26565 ft 475 kts 179°
2026-05-04 01:46 26.13551 55.79277 26566 ft 475 kts 177°
2026-05-04 01:46 26.10253 55.79505 26568 ft 475 kts 176°
2026-05-04 01:47 26.06952 55.79774 26570 ft 475 kts 176°
2026-05-04 01:47 26.03659 55.80114 26570 ft 476 kts 173°
2026-05-04 01:47 26.00377 55.80607 26573 ft 476 kts 172°
2026-05-04 01:47 25.97110 55.81169 26575 ft 476 kts 171°
2026-05-04 01:48 25.93842 55.81741 26577 ft 476 kts 171°
2026-05-04 01:48 25.90570 55.82305 26580 ft 476 kts 172°
2026-05-04 01:48 25.87298 55.82843 26582 ft 476 kts 172°
2026-05-04 01:48 25.84018 55.83363 26584 ft 476 kts 172°
2026-05-04 01:49 25.80741 55.83861 26585 ft 476 kts 173°
2026-05-04 01:49 25.77451 55.84197 26587 ft 475 kts 176°
2026-05-04 01:49 25.74145 55.84401 26589 ft 475 kts 178°
2026-05-04 01:49 25.70840 55.84560 26592 ft 475 kts 178°
2026-05-04 01:50 25.67534 55.84720 26594 ft 475 kts 178°
2026-05-04 01:50 25.64229 55.84898 26596 ft 475 kts 177°
2026-05-04 01:50 25.62044 55.85027 26598 ft 475 kts 177°
2026-05-04 01:50 25.58741 55.85236 26600 ft 475 kts 177°
2026-05-04 01:51 25.55441 55.85457 26603 ft 475 kts 176°
2026-05-04 01:51 25.52137 55.85684 26605 ft 475 kts 176°
2026-05-04 01:51 25.48832 55.85914 26607 ft 475 kts 176°
2026-05-04 01:51 25.45536 55.86143 26610 ft 475 kts 176°
2026-05-04 01:52 25.42230 55.86372 26613 ft 475 kts 176°
2026-05-04 01:52 25.38931 55.86600 26617 ft 475 kts 176°
2026-05-04 01:52 25.35632 55.86827 26619 ft 475 kts 176°
2026-05-04 01:52 25.32333 55.87116 26621 ft 476 kts 174°
2026-05-04 01:53 25.29042 55.87505 26624 ft 476 kts 173°
2026-05-04 01:53 25.25756 55.87937 26627 ft 476 kts 173°
2026-05-04 01:53 25.22474 55.88378 26630 ft 476 kts 173°
2026-05-04 01:53 25.19183 55.88815 26633 ft 476 kts 173°
2026-05-04 01:54 25.15896 55.89242 26635 ft 476 kts 173°
2026-05-04 01:54 25.12612 55.89657 26638 ft 476 kts 174°
2026-05-04 01:54 25.09322 55.90066 26640 ft 476 kts 174°
2026-05-04 01:54 25.06037 55.90471 26642 ft 476 kts 174°
2026-05-04 01:55 25.02747 55.90874 26645 ft 476 kts 174°
2026-05-04 01:55 24.99453 55.91266 26648 ft 476 kts 174°
2026-05-04 01:55 24.96164 55.91653 26651 ft 476 kts 174°
2026-05-04 01:55 24.92874 55.92040 26653 ft 476 kts 174°
2026-05-04 01:56 24.89581 55.92427 26655 ft 476 kts 174°
2026-05-04 01:56 24.86294 55.92816 26660 ft 476 kts 174°
2026-05-04 01:56 24.83003 55.93205 26663 ft 476 kts 174°
2026-05-04 01:56 24.79710 55.93581 26661 ft 476 kts 176°
2026-05-04 01:57 24.76406 55.93685 26664 ft 475 kts 180°
2026-05-04 01:57 24.73095 55.93675 26668 ft 475 kts 181°
2026-05-04 01:57 24.69790 55.93616 26670 ft 475 kts 181°
2026-05-04 01:57 24.66484 55.93532 26674 ft 475 kts 181°
2026-05-04 01:58 24.63178 55.93440 26678 ft 475 kts 181°
2026-05-04 01:58 24.59876 55.93205 26674 ft 475 kts 187°
2026-05-04 01:58 24.56602 55.92722 26680 ft 475 kts 188°
2026-05-04 01:58 24.53329 55.92175 26682 ft 475 kts 189°
2026-05-04 01:59 24.50072 55.91595 26684 ft 475 kts 189°
2026-05-04 01:59 24.46806 55.90999 26688 ft 475 kts 189°
2026-05-04 01:59 24.43544 55.90400 26691 ft 475 kts 189°
2026-05-04 01:59 24.40286 55.89805 26694 ft 475 kts 189°
2026-05-04 02:00 24.37021 55.89212 26697 ft 475 kts 189°
2026-05-04 02:00 24.33765 55.88627 26699 ft 475 kts 189°
2026-05-04 02:00 24.30500 55.88040 26702 ft 475 kts 189°
2026-05-04 02:00 24.27232 55.87491 26703 ft 475 kts 187°
2026-05-04 02:01 24.23942 55.87095 26706 ft 475 kts 185°
2026-05-04 02:01 24.20652 55.86785 26708 ft 475 kts 185°
2026-05-04 02:01 24.17351 55.86498 26710 ft 475 kts 185°
2026-05-04 02:01 24.14056 55.86204 26713 ft 475 kts 185°
2026-05-04 02:02 24.10760 55.85894 26715 ft 475 kts 185°
2026-05-04 02:02 24.07467 55.85568 26717 ft 475 kts 185°
2026-05-04 02:02 24.04177 55.85231 26720 ft 475 kts 186°
2026-05-04 02:02 24.00883 55.84887 26722 ft 475 kts 186°
2026-05-04 02:03 23.97590 55.84541 26725 ft 475 kts 186°
2026-05-04 02:03 23.94301 55.84194 26727 ft 475 kts 186°
2026-05-04 02:03 23.91010 55.83848 26730 ft 475 kts 186°
2026-05-04 02:03 23.87714 55.83503 26732 ft 475 kts 186°
2026-05-04 02:04 23.84426 55.83158 26735 ft 475 kts 186°
2026-05-04 02:04 23.81133 55.82814 26737 ft 475 kts 186°
2026-05-04 02:04 23.77838 55.82470 26739 ft 475 kts 186°
2026-05-04 02:04 23.74543 55.82127 26742 ft 475 kts 186°
2026-05-04 02:05 23.71247 55.81885 26737 ft 476 kts 180°
2026-05-04 02:05 23.67942 55.82077 26742 ft 476 kts 175°
2026-05-04 02:05 23.64654 55.82464 26744 ft 476 kts 173°
2026-05-04 02:05 23.61369 55.82930 26746 ft 476 kts 172°
2026-05-04 02:06 23.58092 55.83433 26748 ft 476 kts 172°
2026-05-04 02:06 23.54821 55.83950 26750 ft 476 kts 172°
2026-05-04 02:06 23.51541 55.84472 26753 ft 476 kts 172°
2026-05-04 02:06 23.48264 55.84985 26756 ft 476 kts 172°
2026-05-04 02:07 23.44990 55.85489 26758 ft 476 kts 172°
2026-05-04 02:07 23.41711 55.85987 26761 ft 476 kts 172°
2026-05-04 02:07 23.38431 55.86483 26763 ft 476 kts 172°
2026-05-04 02:07 23.35155 55.86978 26766 ft 476 kts 172°
2026-05-04 02:08 23.31874 55.87472 26768 ft 476 kts 172°
2026-05-04 02:08 23.28594 55.87967 26771 ft 476 kts 172°
2026-05-04 02:08 23.25312 55.88462 26774 ft 476 kts 172°
2026-05-04 02:08 23.22036 55.88956 26776 ft 476 kts 172°
2026-05-04 02:09 23.18755 55.89451 26778 ft 476 kts 172°
2026-05-04 02:09 23.15476 55.89946 26781 ft 476 kts 172°
2026-05-04 02:09 23.12199 55.90440 26783 ft 476 kts 172°
2026-05-04 02:09 23.08917 55.90934 26786 ft 476 kts 172°
2026-05-04 02:10 23.05639 55.91428 26788 ft 476 kts 172°
2026-05-04 02:10 23.02359 55.91922 26791 ft 476 kts 172°
2026-05-04 02:10 22.99083 55.92418 26793 ft 476 kts 172°
2026-05-04 02:10 22.95806 55.92910 26796 ft 476 kts 172°
2026-05-04 02:11 22.92523 55.93399 26799 ft 476 kts 172°
2026-05-04 02:11 22.89243 55.93888 26801 ft 476 kts 172°
2026-05-04 02:11 22.85964 55.94377 26803 ft 476 kts 172°
2026-05-04 02:11 22.82685 55.94866 26806 ft 476 kts 172°
2026-05-04 02:12 22.79402 55.95357 26808 ft 476 kts 172°
2026-05-04 02:12 22.76126 55.95848 26810 ft 476 kts 172°
2026-05-04 02:12 22.72847 55.96335 26813 ft 476 kts 172°
2026-05-04 02:12 22.69564 55.96819 26815 ft 476 kts 172°
2026-05-04 02:13 22.66287 55.97302 26818 ft 476 kts 172°
2026-05-04 02:13 22.63000 55.97787 26820 ft 476 kts 172°
2026-05-04 02:13 22.59719 55.98271 26823 ft 476 kts 172°
2026-05-04 02:13 22.56444 55.98755 26825 ft 476 kts 172°
2026-05-04 02:14 22.53162 55.99239 26828 ft 476 kts 172°
2026-05-04 02:14 22.49884 55.99724 26830 ft 476 kts 172°
2026-05-04 02:14 22.46602 56.00209 26832 ft 476 kts 172°
2026-05-04 02:14 22.43320 56.00693 26835 ft 476 kts 172°
2026-05-04 02:15 22.40042 56.01177 26837 ft 476 kts 172°
2026-05-04 02:15 22.36760 56.01662 26840 ft 476 kts 172°
2026-05-04 02:15 22.33484 56.02151 26842 ft 476 kts 172°
2026-05-04 02:15 22.30203 56.02638 26845 ft 476 kts 172°
2026-05-04 02:16 22.26919 56.03125 26847 ft 476 kts 172°
2026-05-04 02:16 22.23641 56.03611 26850 ft 476 kts 172°
2026-05-04 02:16 22.20356 56.04097 26853 ft 476 kts 172°
2026-05-04 02:16 22.17079 56.04582 26857 ft 476 kts 172°
2026-05-04 02:17 22.13799 56.05068 26860 ft 476 kts 172°
2026-05-04 02:17 22.10520 56.05553 26863 ft 476 kts 172°
2026-05-04 02:17 22.07239 56.06039 26865 ft 476 kts 172°
2026-05-04 02:17 22.03957 56.06524 26869 ft 476 kts 172°
2026-05-04 02:18 22.00676 56.07012 26871 ft 476 kts 172°
2026-05-04 02:18 21.97397 56.07500 26874 ft 476 kts 172°
2026-05-04 02:18 21.94119 56.07985 26877 ft 476 kts 172°
2026-05-04 02:18 21.90835 56.08469 26880 ft 476 kts 172°
2026-05-04 02:19 21.87555 56.08952 26883 ft 476 kts 172°
2026-05-04 02:19 21.84314 56.09429 26886 ft 476 kts 172°
2026-05-04 02:19 21.80994 56.09918 26889 ft 476 kts 172°
2026-05-04 02:19 21.77711 56.10402 26892 ft 476 kts 172°
2026-05-04 02:20 21.74430 56.10886 26894 ft 476 kts 172°
2026-05-04 02:20 21.71151 56.11370 26897 ft 476 kts 172°
2026-05-04 02:20 21.67868 56.11853 26900 ft 476 kts 172°
2026-05-04 02:20 21.64590 56.12336 26903 ft 476 kts 172°
2026-05-04 02:21 21.61305 56.12820 26905 ft 476 kts 172°
2026-05-04 02:21 21.58070 56.13296 26908 ft 476 kts 172°
2026-05-04 02:21 21.54788 56.13779 26911 ft 476 kts 172°
2026-05-04 02:21 21.51503 56.14261 26913 ft 476 kts 172°
2026-05-04 02:22 21.48224 56.14743 26916 ft 476 kts 172°
2026-05-04 02:22 21.44908 56.15230 26919 ft 476 kts 172°
2026-05-04 02:22 21.41630 56.15712 26921 ft 476 kts 172°
2026-05-04 02:22 21.38346 56.16194 26924 ft 476 kts 172°
2026-05-04 02:23 21.35064 56.16675 26927 ft 476 kts 172°
2026-05-04 02:23 21.31782 56.17156 26929 ft 476 kts 172°
2026-05-04 02:23 21.28501 56.17637 26932 ft 476 kts 172°
2026-05-04 02:23 21.25216 56.18120 26935 ft 476 kts 172°
2026-05-04 02:24 21.21936 56.18600 26937 ft 476 kts 172°
2026-05-04 02:24 21.18656 56.19077 26940 ft 476 kts 172°
2026-05-04 02:24 21.15375 56.19554 26943 ft 476 kts 172°
2026-05-04 02:24 21.12090 56.20031 26946 ft 476 kts 172°
2026-05-04 02:25 21.08811 56.20507 26948 ft 476 kts 172°
2026-05-04 02:25 21.05526 56.20985 26951 ft 476 kts 172°
2026-05-04 02:25 21.02243 56.21462 26953 ft 476 kts 172°
2026-05-04 02:25 20.98963 56.21939 26956 ft 476 kts 172°
2026-05-04 02:26 20.95681 56.22415 26959 ft 476 kts 172°
2026-05-04 02:26 20.92400 56.22892 26961 ft 476 kts 172°
2026-05-04 02:26 20.89116 56.23369 26964 ft 476 kts 172°
2026-05-04 02:26 20.85834 56.23845 26967 ft 476 kts 172°
2026-05-04 02:27 20.82553 56.24321 26969 ft 476 kts 172°
2026-05-04 02:27 20.79268 56.24797 26972 ft 476 kts 172°
2026-05-04 02:27 20.75983 56.25273 26974 ft 476 kts 172°
2026-05-04 02:27 20.72700 56.25749 26977 ft 476 kts 172°
2026-05-04 02:28 20.69416 56.26224 26979 ft 476 kts 172°
2026-05-04 02:28 20.66177 56.26693 26982 ft 476 kts 172°
2026-05-04 02:28 20.62856 56.27173 26984 ft 476 kts 172°
2026-05-04 02:28 20.59574 56.27648 26987 ft 476 kts 172°
2026-05-04 02:29 20.56282 56.28057 26983 ft 476 kts 176°
2026-05-04 02:29 20.52972 56.28186 26989 ft 476 kts 179°
2026-05-04 02:29 20.49706 56.28235 26991 ft 476 kts 180°
2026-05-04 02:29 20.46349 56.28242 26993 ft 476 kts 180°
2026-05-04 02:30 20.43082 56.28229 26995 ft 476 kts 180°
2026-05-04 02:30 20.39773 56.28209 26997 ft 476 kts 180°
2026-05-04 02:30 20.36462 56.28189 27000 ft 476 kts 180°
2026-05-04 02:30 20.33152 56.28173 27002 ft 476 kts 180°
2026-05-04 02:31 20.29839 56.28160 27005 ft 476 kts 180°
2026-05-04 02:31 20.27604 56.28153 27006 ft 476 kts 180°
2026-05-04 02:31 20.24290 56.28144 27009 ft 476 kts 180°
2026-05-04 02:31 20.20981 56.28136 27012 ft 476 kts 180°
2026-05-04 02:32 20.16554 56.28125 27015 ft 476 kts 180°
2026-05-04 02:32 20.14360 56.28120 27016 ft 476 kts 180°
2026-05-04 02:32 20.11049 56.28113 27019 ft 476 kts 180°
2026-05-04 02:32 20.07736 56.28105 27021 ft 476 kts 180°
2026-05-04 02:33 20.03353 56.28094 27025 ft 476 kts 180°
2026-05-04 02:33 20.00041 56.28080 27025 ft 476 kts 181°
2026-05-04 02:33 19.97810 56.27932 27021 ft 476 kts 187°
2026-05-04 02:33 19.94553 56.27340 27027 ft 475 kts 192°
2026-05-04 02:34 19.91322 56.26575 27028 ft 475 kts 193°
2026-05-04 02:34 19.88110 56.25737 27030 ft 475 kts 194°
2026-05-04 02:34 19.84908 56.24864 27032 ft 475 kts 194°
2026-05-04 02:34 19.81709 56.23978 27035 ft 475 kts 195°
2026-05-04 02:35 19.78502 56.23091 27038 ft 475 kts 194°
2026-05-04 02:35 19.75300 56.22211 27040 ft 475 kts 194°
2026-05-04 02:35 19.72099 56.21337 27042 ft 475 kts 194°
2026-05-04 02:35 19.68894 56.20468 27045 ft 475 kts 194°
2026-05-04 02:36 19.65691 56.19603 27048 ft 475 kts 194°
2026-05-04 02:36 19.62483 56.18737 27050 ft 475 kts 194°
2026-05-04 02:36 19.59278 56.17874 27053 ft 475 kts 194°
2026-05-04 02:36 19.56070 56.17010 27055 ft 475 kts 194°
2026-05-04 02:37 19.52864 56.16146 27057 ft 475 kts 194°
2026-05-04 02:37 19.49661 56.15284 27059 ft 475 kts 194°
2026-05-04 02:37 19.46454 56.14421 27062 ft 475 kts 194°
2026-05-04 02:37 19.43248 56.13558 27065 ft 475 kts 194°
2026-05-04 02:38 19.40039 56.12695 27067 ft 475 kts 194°
2026-05-04 02:38 19.36833 56.11832 27069 ft 475 kts 194°
2026-05-04 02:38 19.33626 56.10970 27072 ft 475 kts 194°
2026-05-04 02:38 19.30422 56.10109 27074 ft 475 kts 194°
2026-05-04 02:39 19.27216 56.09248 27077 ft 475 kts 194°
2026-05-04 02:39 19.24010 56.08387 27080 ft 475 kts 194°
2026-05-04 02:39 19.20803 56.07527 27082 ft 475 kts 194°
2026-05-04 02:39 19.17596 56.06666 27084 ft 475 kts 194°
2026-05-04 02:40 19.14388 56.05806 27087 ft 475 kts 194°
2026-05-04 02:40 19.11179 56.04946 27089 ft 475 kts 194°
2026-05-04 02:40 19.07976 56.04088 27091 ft 475 kts 194°
2026-05-04 02:40 19.04770 56.03229 27094 ft 475 kts 194°
2026-05-04 02:41 19.01561 56.02370 27098 ft 475 kts 194°
2026-05-04 02:41 18.98351 56.01511 27101 ft 475 kts 194°
2026-05-04 02:41 18.95123 56.00650 27104 ft 475 kts 194°
2026-05-04 02:41 18.91958 55.99806 27106 ft 476 kts 194°
2026-05-04 02:42 18.88749 55.98948 27109 ft 476 kts 194°
2026-05-04 02:42 18.85502 55.98080 27112 ft 476 kts 194°
2026-05-04 02:42 18.82292 55.97222 27114 ft 476 kts 194°
2026-05-04 02:42 18.79129 55.96377 27118 ft 476 kts 194°
2026-05-04 02:43 18.75923 55.95522 27121 ft 476 kts 194°
2026-05-04 02:43 18.72713 55.94665 27123 ft 476 kts 194°
2026-05-04 02:43 18.69505 55.93810 27126 ft 476 kts 194°
2026-05-04 02:43 18.66254 55.92944 27129 ft 476 kts 194°
2026-05-04 02:44 18.63048 55.92090 27131 ft 476 kts 194°
2026-05-04 02:44 18.59840 55.91236 27134 ft 476 kts 194°
2026-05-04 02:44 18.56673 55.90393 27137 ft 476 kts 194°
2026-05-04 02:44 18.53463 55.89539 27139 ft 476 kts 194°
2026-05-04 02:45 18.50215 55.88676 27142 ft 476 kts 194°
2026-05-04 02:45 18.47002 55.87822 27144 ft 476 kts 194°
2026-05-04 02:45 18.43841 55.86982 27147 ft 476 kts 194°
2026-05-04 02:45 18.40631 55.86129 27150 ft 476 kts 194°
2026-05-04 02:46 18.37422 55.85277 27152 ft 476 kts 194°
2026-05-04 02:46 18.34216 55.84427 27155 ft 476 kts 194°
2026-05-04 02:46 18.31004 55.83574 27158 ft 476 kts 194°
2026-05-04 02:46 18.27794 55.82723 27160 ft 476 kts 194°
2026-05-04 02:47 18.24584 55.81872 27163 ft 476 kts 194°
2026-05-04 02:47 18.21379 55.81023 27166 ft 476 kts 194°
2026-05-04 02:47 18.18168 55.80173 27168 ft 476 kts 194°
2026-05-04 02:47 18.14963 55.79324 27171 ft 476 kts 194°
2026-05-04 02:48 18.11750 55.78473 27174 ft 476 kts 194°
2026-05-04 02:48 18.08540 55.77624 27177 ft 476 kts 194°
2026-05-04 02:48 18.05332 55.76776 27179 ft 476 kts 194°
2026-05-04 02:48 18.02125 55.75928 27181 ft 476 kts 194°
2026-05-04 02:49 17.98898 55.75146 27177 ft 476 kts 190°
2026-05-04 02:49 17.95629 55.74614 27184 ft 476 kts 188°
2026-05-04 02:49 17.92349 55.74145 27188 ft 476 kts 187°
2026-05-04 02:49 17.89060 55.73710 27192 ft 476 kts 187°
2026-05-04 02:50 17.85775 55.73293 27194 ft 476 kts 187°
2026-05-04 02:50 17.82487 55.72881 27197 ft 476 kts 187°
2026-05-04 02:50 17.79200 55.72470 27199 ft 476 kts 187°
2026-05-04 02:50 17.75910 55.72055 27202 ft 476 kts 187°
2026-05-04 02:51 17.72623 55.71638 27205 ft 476 kts 187°
2026-05-04 02:51 17.69339 55.71219 27208 ft 476 kts 187°
2026-05-04 02:51 17.66049 55.70799 27210 ft 476 kts 187°
2026-05-04 02:51 17.62764 55.70378 27213 ft 476 kts 187°
2026-05-04 02:52 17.59479 55.69958 27217 ft 476 kts 187°
2026-05-04 02:52 17.56191 55.69537 27219 ft 476 kts 187°
2026-05-04 02:52 17.52860 55.69111 27221 ft 476 kts 187°
2026-05-04 02:52 17.49614 55.68697 27224 ft 476 kts 187°
2026-05-04 02:53 17.46326 55.68277 27226 ft 476 kts 187°
2026-05-04 02:53 17.43041 55.67857 27229 ft 476 kts 187°
2026-05-04 02:53 17.39756 55.67438 27231 ft 476 kts 187°
2026-05-04 02:53 17.36467 55.67019 27234 ft 476 kts 187°
2026-05-04 02:54 17.33181 55.66600 27237 ft 476 kts 187°
2026-05-04 02:54 17.29890 55.66180 27239 ft 476 kts 187°
2026-05-04 02:54 17.26607 55.65762 27242 ft 476 kts 187°
2026-05-04 02:54 17.23317 55.65343 27244 ft 476 kts 187°
2026-05-04 02:55 17.16743 55.64506 27250 ft 476 kts 187°
2026-05-04 02:55 17.13458 55.64088 27252 ft 476 kts 187°
2026-05-04 02:55 17.10167 55.63670 27255 ft 476 kts 187°
2026-05-04 02:56 17.06881 55.63252 27257 ft 476 kts 187°
2026-05-04 02:56 17.03592 55.62834 27260 ft 476 kts 187°
2026-05-04 02:56 17.00305 55.62417 27262 ft 476 kts 187°
2026-05-04 02:56 16.97020 55.61999 27265 ft 476 kts 187°
2026-05-04 02:57 16.93732 55.61582 27267 ft 476 kts 187°
2026-05-04 02:57 16.90445 55.61165 27270 ft 476 kts 187°
2026-05-04 02:57 16.87154 55.60749 27272 ft 476 kts 187°
2026-05-04 02:57 16.83866 55.60338 27274 ft 476 kts 187°
2026-05-04 02:58 16.80578 55.59927 27277 ft 476 kts 187°
2026-05-04 02:58 16.77285 55.59515 27279 ft 476 kts 187°
2026-05-04 02:58 16.73999 55.59103 27282 ft 476 kts 187°
2026-05-04 02:58 16.70709 55.58691 27284 ft 476 kts 187°
2026-05-04 02:59 16.67377 55.58274 27287 ft 476 kts 187°
2026-05-04 02:59 16.64089 55.57863 27289 ft 476 kts 187°
2026-05-04 02:59 16.60798 55.57452 27292 ft 476 kts 187°
2026-05-04 02:59 16.57512 55.57042 27294 ft 476 kts 187°
2026-05-04 03:00 16.54226 55.56631 27297 ft 476 kts 187°
2026-05-04 03:00 16.50937 55.56221 27299 ft 476 kts 187°
2026-05-04 03:00 16.47649 55.55811 27302 ft 476 kts 187°
2026-05-04 03:00 16.44356 55.55400 27304 ft 476 kts 187°
2026-05-04 03:01 16.41069 55.54990 27306 ft 476 kts 187°
2026-05-04 03:01 16.37783 55.54581 27309 ft 476 kts 187°
2026-05-04 03:01 16.34493 55.54171 27311 ft 476 kts 187°
2026-05-04 03:01 16.31205 55.53761 27314 ft 476 kts 187°
2026-05-04 03:02 16.27916 55.53352 27316 ft 476 kts 187°
2026-05-04 03:02 16.24627 55.52942 27318 ft 476 kts 187°
2026-05-04 03:02 16.21333 55.52532 27321 ft 476 kts 187°
2026-05-04 03:02 16.18047 55.52123 27323 ft 476 kts 187°
2026-05-04 03:03 16.14758 55.51715 27326 ft 476 kts 187°
2026-05-04 03:03 16.11510 55.51311 27328 ft 476 kts 187°
2026-05-04 03:03 16.08181 55.50897 27330 ft 476 kts 187°
2026-05-04 03:03 16.04931 55.50493 27333 ft 476 kts 187°
2026-05-04 03:04 16.01603 55.50080 27335 ft 476 kts 187°
2026-05-04 03:04 15.98309 55.49671 27337 ft 476 kts 187°
2026-05-04 03:04 15.95027 55.49264 27340 ft 476 kts 187°
2026-05-04 03:04 15.91734 55.48855 27344 ft 476 kts 187°
2026-05-04 03:05 15.88441 55.48447 27346 ft 476 kts 187°
2026-05-04 03:05 15.85154 55.48039 27349 ft 476 kts 187°
2026-05-04 03:05 15.81862 55.47631 27353 ft 476 kts 187°
2026-05-04 03:05 15.78577 55.47224 27355 ft 476 kts 187°
2026-05-04 03:06 15.75283 55.46816 27358 ft 476 kts 187°
2026-05-04 03:06 15.71997 55.46409 27361 ft 476 kts 187°
2026-05-04 03:06 15.68706 55.46002 27364 ft 476 kts 187°
2026-05-04 03:06 15.65414 55.45595 27366 ft 476 kts 187°
2026-05-04 03:07 15.62127 55.45188 27369 ft 476 kts 187°
2026-05-04 03:07 15.58881 55.44787 27372 ft 476 kts 187°
2026-05-04 03:07 15.55590 55.44380 27375 ft 476 kts 187°
2026-05-04 03:07 15.52259 55.43968 27378 ft 476 kts 187°
2026-05-04 03:08 15.48967 55.43562 27381 ft 476 kts 187°
2026-05-04 03:08 15.45683 55.43156 27384 ft 476 kts 187°
2026-05-04 03:08 15.42389 55.42749 27386 ft 476 kts 187°
2026-05-04 03:08 15.39099 55.42343 27388 ft 476 kts 187°
2026-05-04 03:09 15.35808 55.41937 27391 ft 476 kts 187°
2026-05-04 03:09 15.32521 55.41532 27393 ft 476 kts 187°
2026-05-04 03:09 15.29272 55.41131 27396 ft 476 kts 187°
2026-05-04 03:09 15.25940 55.40721 27400 ft 476 kts 187°
2026-05-04 03:10 15.22647 55.40315 27404 ft 476 kts 187°
2026-05-04 03:10 15.19358 55.39910 27409 ft 476 kts 187°
2026-05-04 03:10 15.17178 55.39642 27412 ft 476 kts 187°
2026-05-04 03:10 15.12818 55.39100 27419 ft 476 kts 187°
2026-05-04 03:11 15.10597 55.38821 27423 ft 476 kts 187°
2026-05-04 03:11 15.07304 55.38407 27430 ft 476 kts 187°
2026-05-04 03:11 15.04018 55.37993 27436 ft 476 kts 187°
2026-05-04 03:11 15.00725 55.37579 27443 ft 476 kts 187°
2026-05-04 03:12 14.97436 55.37166 27450 ft 477 kts 187°
2026-05-04 03:12 14.94143 55.36753 27458 ft 477 kts 187°
2026-05-04 03:12 14.90853 55.36342 27466 ft 477 kts 187°
2026-05-04 03:12 14.87558 55.35930 27474 ft 477 kts 187°
2026-05-04 03:13 14.84269 55.35519 27481 ft 477 kts 187°
2026-05-04 03:13 14.80974 55.35108 27489 ft 477 kts 187°
2026-05-04 03:13 14.77679 55.34696 27496 ft 477 kts 187°
2026-05-04 03:13 14.74391 55.34286 27502 ft 477 kts 187°
2026-05-04 03:14 14.71094 55.33874 27509 ft 477 kts 187°
2026-05-04 03:14 14.67799 55.33463 27516 ft 477 kts 187°
2026-05-04 03:14 14.64503 55.33052 27522 ft 477 kts 187°
2026-05-04 03:14 14.61209 55.32641 27529 ft 477 kts 187°
2026-05-04 03:15 14.57915 55.32230 27536 ft 477 kts 187°
2026-05-04 03:15 14.54615 55.31819 27542 ft 477 kts 187°
2026-05-04 03:15 14.51320 55.31408 27548 ft 477 kts 187°
2026-05-04 03:15 14.48028 55.30998 27554 ft 477 kts 187°
2026-05-04 03:16 14.44730 55.30588 27560 ft 477 kts 187°
2026-05-04 03:16 14.41433 55.30177 27566 ft 477 kts 187°
2026-05-04 03:16 14.38136 55.29767 27572 ft 477 kts 187°
2026-05-04 03:16 14.34844 55.29357 27578 ft 477 kts 187°
2026-05-04 03:17 14.31545 55.28947 27583 ft 477 kts 187°
2026-05-04 03:17 14.28249 55.28537 27589 ft 477 kts 187°
2026-05-04 03:17 14.24952 55.28128 27594 ft 477 kts 187°
2026-05-04 03:17 14.21655 55.27718 27600 ft 477 kts 187°
2026-05-04 03:18 14.18355 55.27308 27605 ft 477 kts 187°
2026-05-04 03:18 14.15060 55.26899 27610 ft 477 kts 187°
2026-05-04 03:18 14.11760 55.26489 27616 ft 477 kts 187°
2026-05-04 03:18 14.08463 55.26080 27621 ft 477 kts 187°
2026-05-04 03:19 14.05161 55.25670 27626 ft 478 kts 187°
2026-05-04 03:19 14.01862 55.25261 27631 ft 478 kts 187°
2026-05-04 03:19 13.98565 55.24852 27636 ft 478 kts 187°
2026-05-04 03:19 13.95268 55.24443 27641 ft 478 kts 187°
2026-05-04 03:20 13.91965 55.24034 27646 ft 478 kts 187°
2026-05-04 03:20 13.88666 55.23626 27651 ft 478 kts 187°
2026-05-04 03:20 13.85366 55.23214 27655 ft 478 kts 187°
2026-05-04 03:20 13.82066 55.22797 27660 ft 478 kts 187°
2026-05-04 03:21 13.78767 55.22379 27664 ft 478 kts 187°
2026-05-04 03:21 13.75470 55.21961 27669 ft 478 kts 187°
2026-05-04 03:21 13.72169 55.21543 27674 ft 478 kts 187°
2026-05-04 03:21 13.68872 55.21126 27678 ft 478 kts 187°
2026-05-04 03:22 13.65569 55.20710 27683 ft 478 kts 187°
2026-05-04 03:22 13.62271 55.20294 27687 ft 478 kts 187°
2026-05-04 03:22 13.58971 55.19879 27691 ft 478 kts 187°
2026-05-04 03:22 13.55671 55.19464 27695 ft 478 kts 187°
2026-05-04 03:23 13.52369 55.19049 27700 ft 478 kts 187°
2026-05-04 03:23 13.49071 55.18634 27704 ft 478 kts 187°
2026-05-04 03:23 13.45772 55.18219 27708 ft 478 kts 187°
2026-05-04 03:23 13.42470 55.17804 27712 ft 478 kts 187°
2026-05-04 03:24 13.39170 55.17389 27716 ft 478 kts 187°
2026-05-04 03:24 13.35868 55.16975 27720 ft 478 kts 187°
2026-05-04 03:24 13.32564 55.16560 27724 ft 478 kts 187°
2026-05-04 03:24 13.29262 55.16145 27728 ft 478 kts 187°
2026-05-04 03:25 13.25959 55.15731 27732 ft 478 kts 187°
2026-05-04 03:25 13.22659 55.15316 27738 ft 478 kts 187°
2026-05-04 03:25 13.19364 55.14903 27743 ft 478 kts 187°
2026-05-04 03:25 13.16052 55.14488 27749 ft 478 kts 187°
2026-05-04 03:26 13.12756 55.14074 27756 ft 478 kts 187°
2026-05-04 03:26 13.09452 55.13660 27762 ft 478 kts 187°
2026-05-04 03:26 13.06146 55.13246 27769 ft 478 kts 187°
2026-05-04 03:26 13.02845 55.12832 27775 ft 478 kts 187°
2026-05-04 03:27 12.99539 55.12418 27781 ft 478 kts 187°
2026-05-04 03:27 12.96218 55.12002 27787 ft 478 kts 187°
2026-05-04 03:27 12.92915 55.11589 27793 ft 478 kts 187°
2026-05-04 03:27 12.89609 55.11175 27799 ft 478 kts 187°
2026-05-04 03:28 12.86305 55.10762 27804 ft 478 kts 187°
2026-05-04 03:28 12.83001 55.10349 27810 ft 478 kts 187°
2026-05-04 03:28 12.79696 55.09935 27816 ft 478 kts 187°
2026-05-04 03:28 12.76391 55.09522 27821 ft 479 kts 187°
2026-05-04 03:29 12.73090 55.09110 27826 ft 479 kts 187°
2026-05-04 03:29 12.69782 55.08696 27832 ft 479 kts 187°
2026-05-04 03:29 12.66476 55.08283 27837 ft 479 kts 187°
2026-05-04 03:29 12.63168 55.07870 27842 ft 479 kts 187°
2026-05-04 03:30 12.59861 55.07457 27847 ft 479 kts 187°
2026-05-04 03:30 12.56553 55.07044 27852 ft 479 kts 187°
2026-05-04 03:30 12.53249 55.06632 27857 ft 479 kts 187°
2026-05-04 03:30 12.49942 55.06220 27862 ft 479 kts 187°
2026-05-04 03:31 12.46637 55.05807 27867 ft 479 kts 187°
2026-05-04 03:31 12.43332 55.05395 27872 ft 479 kts 187°
2026-05-04 03:31 12.40021 55.04983 27877 ft 479 kts 187°
2026-05-04 03:31 12.36714 55.04570 27881 ft 479 kts 187°
2026-05-04 03:32 12.33409 55.04159 27886 ft 479 kts 187°
2026-05-04 03:32 12.30102 55.03747 27890 ft 479 kts 187°
2026-05-04 03:32 12.26794 55.03335 27895 ft 479 kts 187°
2026-05-04 03:32 12.23485 55.02923 27899 ft 479 kts 187°
2026-05-04 03:33 12.20176 55.02511 27904 ft 479 kts 187°
2026-05-04 03:33 12.16871 55.02100 27908 ft 479 kts 187°
2026-05-04 03:33 12.13563 55.01688 27912 ft 479 kts 187°
2026-05-04 03:33 12.10250 55.01276 27917 ft 479 kts 187°
2026-05-04 03:34 12.06945 55.00865 27921 ft 479 kts 187°
2026-05-04 03:34 12.03632 55.00453 27925 ft 479 kts 187°
2026-05-04 03:34 12.00319 55.00117 27920 ft 479 kts 182°
2026-05-04 03:34 11.96988 55.00018 27929 ft 479 kts 181°
2026-05-04 03:35 11.93651 54.99975 27933 ft 479 kts 180°
2026-05-04 03:35 11.90316 54.99965 27937 ft 479 kts 180°
2026-05-04 03:35 11.86978 54.99970 27941 ft 479 kts 180°
2026-05-04 03:35 11.83645 54.99980 27945 ft 479 kts 180°
2026-05-04 03:36 11.80305 54.99990 27948 ft 479 kts 180°
2026-05-04 03:36 11.76972 54.99996 27952 ft 479 kts 180°
2026-05-04 03:36 11.73638 54.99999 27956 ft 479 kts 180°
2026-05-04 03:36 11.70302 55.00001 27960 ft 479 kts 180°
2026-05-04 03:37 11.66970 55.00001 27964 ft 479 kts 180°
2026-05-04 03:37 11.63633 55.00001 27968 ft 479 kts 180°
2026-05-04 03:37 11.60295 55.00001 27971 ft 479 kts 180°
2026-05-04 03:37 11.56957 55.00001 27975 ft 479 kts 180°
2026-05-04 03:38 11.53620 55.00000 27979 ft 479 kts 180°
2026-05-04 03:38 11.50288 55.00000 27982 ft 479 kts 180°
2026-05-04 03:38 11.46948 55.00000 27986 ft 480 kts 180°
2026-05-04 03:38 11.43609 55.00000 27990 ft 480 kts 180°
2026-05-04 03:39 11.40274 55.00000 27993 ft 480 kts 180°
2026-05-04 03:39 11.36940 55.00002 27996 ft 480 kts 180°
2026-05-04 03:39 11.33602 55.00005 28000 ft 480 kts 180°
2026-05-04 03:40 11.26928 55.00004 28008 ft 480 kts 180°
2026-05-04 03:40 11.20253 55.00001 28014 ft 480 kts 180°
2026-05-04 03:41 11.13578 55.00000 28021 ft 480 kts 180°
2026-05-04 03:41 11.06904 55.00000 28028 ft 480 kts 180°
2026-05-04 03:42 11.00231 55.00000 28035 ft 480 kts 180°
2026-05-04 03:42 10.93551 55.00000 28042 ft 480 kts 180°
2026-05-04 03:43 10.86874 55.00000 28049 ft 480 kts 180°
2026-05-04 03:43 10.80202 55.00000 28056 ft 480 kts 180°
2026-05-04 03:44 10.73526 55.00000 28062 ft 480 kts 180°
2026-05-04 03:44 10.66848 55.00000 28069 ft 480 kts 180°
2026-05-04 03:45 10.60170 55.00000 28075 ft 480 kts 180°
2026-05-04 03:45 10.53493 55.00000 28082 ft 480 kts 180°
2026-05-04 03:46 10.46815 55.00000 28088 ft 480 kts 180°
2026-05-04 03:46 10.40132 55.00000 28095 ft 480 kts 180°
2026-05-04 03:47 10.33458 55.00000 28101 ft 480 kts 180°
2026-05-04 03:47 10.26777 55.00005 28107 ft 480 kts 180°
2026-05-04 03:48 10.20100 55.00003 28113 ft 480 kts 180°
2026-05-04 03:48 10.13419 55.00001 28119 ft 480 kts 180°
2026-05-04 03:49 10.06742 55.00000 28125 ft 480 kts 180°
2026-05-04 03:49 10.00058 55.00000 28130 ft 480 kts 180°
2026-05-04 03:50 9.93379 55.00000 28136 ft 480 kts 180°
2026-05-04 03:50 9.86694 55.00000 28142 ft 480 kts 180°
2026-05-04 03:51 9.81149 55.00000 28147 ft 480 kts 180°
2026-05-04 03:51 9.74465 55.00000 28153 ft 480 kts 180°
2026-05-04 03:52 9.67786 55.00000 28159 ft 480 kts 180°
2026-05-04 03:52 9.61107 55.00000 28165 ft 480 kts 180°
2026-05-04 03:53 9.54423 55.00000 28172 ft 480 kts 180°
2026-05-04 03:53 9.47740 55.00000 28177 ft 480 kts 180°
2026-05-04 03:54 9.41057 55.00000 28183 ft 480 kts 180°
2026-05-04 03:54 9.34375 55.00000 28189 ft 480 kts 180°
2026-05-04 03:55 9.27695 55.00000 28195 ft 480 kts 180°
2026-05-04 03:55 9.21012 55.00005 28200 ft 480 kts 180°
2026-05-04 03:56 9.14331 55.00004 28206 ft 480 kts 180°
2026-05-04 03:56 9.07644 55.00001 28212 ft 480 kts 180°
2026-05-04 03:57 9.00966 55.00000 28218 ft 480 kts 180°
2026-05-04 03:57 8.94282 55.00000 28223 ft 480 kts 180°
2026-05-04 03:58 8.84257 55.00000 28231 ft 480 kts 180°
2026-05-04 03:58 8.77569 55.00000 28237 ft 480 kts 180°
2026-05-04 03:59 8.70888 55.00000 28242 ft 480 kts 180°
2026-05-04 03:59 8.64206 55.00000 28248 ft 480 kts 180°
2026-05-04 04:00 8.57521 55.00000 28253 ft 480 kts 180°
2026-05-04 04:00 8.50833 55.00000 28258 ft 480 kts 180°
2026-05-04 04:01 8.44154 55.00000 28264 ft 480 kts 180°
2026-05-04 04:01 8.37470 55.00000 28269 ft 480 kts 180°
2026-05-04 04:02 8.30779 55.00000 28275 ft 480 kts 180°
2026-05-04 04:02 8.24098 55.00000 28280 ft 480 kts 180°
2026-05-04 04:03 8.17410 55.00000 28286 ft 480 kts 180°
2026-05-04 04:03 8.10722 55.00006 28291 ft 480 kts 180°
2026-05-04 04:04 8.04039 55.00003 28297 ft 480 kts 180°
2026-05-04 04:04 7.97352 55.00001 28303 ft 480 kts 180°
2026-05-04 04:05 7.90666 55.00000 28308 ft 480 kts 180°
2026-05-04 04:05 7.83985 55.00000 28314 ft 480 kts 180°
2026-05-04 04:06 7.77296 55.00000 28320 ft 480 kts 180°
2026-05-04 04:06 7.70611 55.00000 28325 ft 480 kts 180°
2026-05-04 04:07 7.63923 55.00000 28330 ft 480 kts 180°
2026-05-04 04:07 7.57239 55.00000 28336 ft 481 kts 180°
2026-05-04 04:08 7.50552 55.00000 28341 ft 481 kts 180°
2026-05-04 04:08 7.43861 55.00000 28346 ft 481 kts 180°
2026-05-04 04:09 7.37173 55.00000 28352 ft 481 kts 180°
2026-05-04 04:09 7.30485 55.00000 28357 ft 481 kts 180°
2026-05-04 04:10 7.23801 55.00000 28362 ft 481 kts 180°
2026-05-04 04:10 7.17111 55.00000 28367 ft 481 kts 180°
2026-05-04 04:11 7.10423 55.00000 28372 ft 481 kts 180°
2026-05-04 04:11 7.03691 55.00000 28377 ft 481 kts 180°
2026-05-04 04:12 6.97004 55.00000 28382 ft 481 kts 180°
2026-05-04 04:12 6.90312 55.00000 28388 ft 481 kts 180°
2026-05-04 04:13 6.83625 55.00000 28393 ft 481 kts 180°
2026-05-04 04:13 6.76936 55.00002 28398 ft 481 kts 180°
2026-05-04 04:14 6.70290 55.00001 28404 ft 481 kts 180°
2026-05-04 04:14 6.63601 55.00000 28409 ft 481 kts 180°
2026-05-04 04:15 6.56867 55.00000 28414 ft 481 kts 180°
2026-05-04 04:15 6.50183 55.00000 28419 ft 481 kts 180°
2026-05-04 04:16 6.43534 55.00000 28425 ft 481 kts 180°
2026-05-04 04:16 6.36803 55.00000 28429 ft 481 kts 180°
2026-05-04 04:17 6.30110 55.00000 28435 ft 481 kts 180°
2026-05-04 04:17 6.23425 55.00000 28440 ft 481 kts 180°
2026-05-04 04:18 6.16737 55.00000 28444 ft 481 kts 180°
2026-05-04 04:18 6.10045 55.00000 28450 ft 481 kts 180°
2026-05-04 04:19 6.03353 55.00000 28454 ft 481 kts 180°
2026-05-04 04:19 5.96663 55.00000 28459 ft 481 kts 180°
2026-05-04 04:20 5.89972 55.00000 28464 ft 481 kts 180°
2026-05-04 04:20 5.83285 55.00000 28469 ft 481 kts 180°
2026-05-04 04:21 5.76593 55.00000 28474 ft 481 kts 180°
2026-05-04 04:21 5.69898 55.00000 28478 ft 481 kts 180°
2026-05-04 04:22 5.63208 55.00000 28483 ft 481 kts 180°
2026-05-04 04:22 5.56518 55.00000 28488 ft 481 kts 180°
2026-05-04 04:23 5.49830 55.00000 28492 ft 481 kts 180°
2026-05-04 04:23 5.43138 55.00000 28497 ft 481 kts 180°
2026-05-04 04:24 5.36450 55.00067 28500 ft 481 kts 177°
2026-05-04 04:24 5.29778 55.00571 28505 ft 481 kts 175°
2026-05-04 04:25 5.23107 55.01169 28510 ft 481 kts 175°
2026-05-04 04:25 5.16438 55.01709 28515 ft 481 kts 176°
2026-05-04 04:26 5.09762 55.02207 28519 ft 481 kts 176°
2026-05-04 04:26 5.03132 55.02689 28524 ft 481 kts 176°
2026-05-04 04:27 4.96456 55.03175 28528 ft 481 kts 176°
2026-05-04 04:27 4.89736 55.03667 28535 ft 481 kts 176°
2026-05-04 04:28 4.83106 55.04153 28538 ft 481 kts 176°
2026-05-04 04:28 4.77515 55.04563 28542 ft 481 kts 176°
2026-05-04 04:29 4.70838 55.05052 28546 ft 481 kts 176°
2026-05-04 04:29 4.64165 55.05541 28550 ft 481 kts 176°
2026-05-04 04:30 4.56403 55.06109 28556 ft 481 kts 176°
2026-05-04 04:30 4.49726 55.06598 28560 ft 481 kts 176°
2026-05-04 04:31 4.44137 55.07008 28564 ft 481 kts 176°
2026-05-04 04:31 4.37459 55.07496 28568 ft 481 kts 176°
2026-05-04 04:32 4.30784 55.07985 28573 ft 481 kts 176°
2026-05-04 04:32 4.24096 55.08474 28577 ft 481 kts 176°
2026-05-04 04:33 4.17419 55.08963 28582 ft 481 kts 176°
2026-05-04 04:33 4.10787 55.09448 28586 ft 481 kts 176°
2026-05-04 04:34 4.04112 55.09942 28591 ft 481 kts 176°
2026-05-04 04:34 3.97391 55.10432 28597 ft 481 kts 176°
2026-05-04 04:35 3.90716 55.10918 28600 ft 481 kts 176°
2026-05-04 04:35 3.84043 55.11405 28604 ft 481 kts 176°
2026-05-04 04:36 3.77366 55.11893 28609 ft 481 kts 176°
2026-05-04 04:36 3.70690 55.12382 28613 ft 481 kts 176°
2026-05-04 04:37 3.57335 55.13359 28622 ft 481 kts 176°
2026-05-04 04:38 3.50657 55.13847 28626 ft 481 kts 176°
2026-05-04 04:38 3.44025 55.14332 28630 ft 481 kts 176°
2026-05-04 04:39 3.37303 55.14823 28635 ft 481 kts 176°
2026-05-04 04:39 3.30630 55.15311 28639 ft 481 kts 176°
2026-05-04 04:40 3.23954 55.15799 28644 ft 481 kts 176°
2026-05-04 04:40 3.17272 55.16287 28648 ft 481 kts 176°
2026-05-04 04:41 3.10597 55.16775 28652 ft 481 kts 176°
2026-05-04 04:41 3.03921 55.17262 28656 ft 481 kts 176°
2026-05-04 04:42 2.97247 55.17750 28660 ft 481 kts 176°
2026-05-04 04:42 2.90567 55.18238 28665 ft 481 kts 176°
2026-05-04 04:43 2.83889 55.18725 28669 ft 481 kts 176°
2026-05-04 04:43 2.77217 55.19212 28674 ft 481 kts 176°
2026-05-04 04:44 2.70540 55.19700 28678 ft 481 kts 176°
2026-05-04 04:44 2.63862 55.20187 28682 ft 481 kts 176°
2026-05-04 04:45 2.57184 55.20675 28687 ft 481 kts 176°
2026-05-04 04:47 2.33858 55.22377 28702 ft 481 kts 176°
2026-05-04 04:47 2.27140 55.22867 28706 ft 481 kts 176°
2026-05-04 04:48 2.20459 55.23354 28711 ft 481 kts 176°
2026-05-04 04:49 2.03768 55.24572 28721 ft 481 kts 176°
2026-05-04 04:49 1.97093 55.25058 28725 ft 481 kts 176°
2026-05-04 04:50 1.90412 55.25546 28730 ft 481 kts 176°
2026-05-04 04:50 1.83781 55.26029 28734 ft 481 kts 176°
2026-05-04 04:51 1.77103 55.26516 28738 ft 481 kts 176°
2026-05-04 04:51 1.70427 55.27003 28743 ft 481 kts 176°
2026-05-04 04:52 1.63702 55.27493 28747 ft 481 kts 176°
2026-05-04 04:52 1.57070 55.27976 28751 ft 481 kts 176°
2026-05-04 04:53 1.50345 55.28467 28755 ft 481 kts 176°
2026-05-04 04:53 1.43673 55.28953 28760 ft 481 kts 176°
2026-05-04 04:54 1.36990 55.29440 28764 ft 481 kts 176°
2026-05-04 04:54 1.30317 55.29928 28768 ft 481 kts 176°
2026-05-04 04:55 1.23641 55.30413 28773 ft 481 kts 176°
2026-05-04 04:55 1.16963 55.30897 28777 ft 481 kts 176°
2026-05-04 04:56 1.10285 55.31382 28781 ft 481 kts 176°
2026-05-04 04:56 1.03604 55.31868 28785 ft 481 kts 176°
2026-05-04 04:57 0.96931 55.32353 28790 ft 481 kts 176°
2026-05-04 04:57 0.90248 55.32839 28794 ft 481 kts 176°
2026-05-04 04:58 0.83573 55.33324 28798 ft 481 kts 176°
2026-05-04 04:58 0.76896 55.33809 28803 ft 481 kts 176°
2026-05-04 04:59 0.70214 55.34295 28807 ft 481 kts 176°
2026-05-04 04:59 0.63538 55.34780 28811 ft 481 kts 176°
2026-05-04 05:00 0.56863 55.35266 28815 ft 481 kts 176°
2026-05-04 05:00 0.50244 55.35747 28844 ft 463 kts 176°
2026-05-04 05:01 0.47106 55.35976 29046 ft 441 kts 176°
2026-05-04 05:01 0.44142 55.36192 29473 ft 414 kts 176°
2026-05-04 05:01 0.41346 55.36399 29682 ft 394 kts 176°
2026-05-04 05:01 0.38633 55.36600 29278 ft 392 kts 176°
2026-05-04 05:02 0.35878 55.36805 28300 ft 404 kts 176°
2026-05-04 05:02 0.33021 55.37017 27160 ft 419 kts 176°
2026-05-04 05:02 0.30083 55.37230 26304 ft 426 kts 176°
2026-05-04 05:02 0.27128 55.37442 25770 ft 424 kts 176°
2026-05-04 05:03 0.24214 55.37646 25500 ft 414 kts 176°
2026-05-04 05:03 0.21392 55.37841 25526 ft 397 kts 176°
2026-05-04 05:04 0.13494 55.38376 24738 ft 377 kts 176°
2026-05-04 05:04 0.10844 55.38550 23889 ft 386 kts 176°
2026-05-04 05:04 0.08137 55.38725 23150 ft 392 kts 176°
2026-05-04 05:06 -0.09900 55.39792 20385 ft 369 kts 177°
2026-05-04 05:06 -0.12453 55.39929 20006 ft 365 kts 177°
2026-05-04 05:06 -0.14962 55.40060 19785 ft 356 kts 177°
2026-05-04 05:07 -0.17411 55.40184 19561 ft 349 kts 177°
2026-05-04 05:07 -0.19818 55.40303 19197 ft 345 kts 178°
2026-05-04 05:07 -0.22221 55.40418 18683 ft 347 kts 178°
2026-05-04 05:09 -0.40356 55.41165 15528 ft 334 kts 178°
2026-05-04 05:09 -0.42672 55.41244 15110 ft 332 kts 178°
2026-05-04 05:10 -0.44973 55.41319 14764 ft 329 kts 178°
2026-05-04 05:10 -0.47242 55.41388 14447 ft 324 kts 179°
2026-05-04 05:10 -0.49484 55.41453 14098 ft 321 kts 179°
2026-05-04 05:10 -0.51716 55.41513 13694 ft 320 kts 179°
2026-05-04 05:11 -0.53938 55.41570 13265 ft 320 kts 179°
2026-05-04 05:11 -0.56164 55.41622 12854 ft 319 kts 179°
2026-05-04 05:11 -0.58373 55.41670 12488 ft 317 kts 179°
2026-05-04 05:11 -0.60565 55.41714 12149 ft 313 kts 179°
2026-05-04 05:12 -0.62735 55.41753 11802 ft 311 kts 179°
2026-05-04 05:12 -0.64887 55.41788 11426 ft 309 kts 179°
2026-05-04 05:12 -0.67033 55.41819 11028 ft 308 kts 179°
2026-05-04 05:12 -0.69173 55.41845 10636 ft 307 kts 180°
2026-05-04 05:13 -0.71306 55.41868 10269 ft 305 kts 180°
2026-05-04 05:13 -0.73419 55.41885 9922 ft 303 kts 180°
2026-05-04 05:13 -0.75519 55.41899 9574 ft 300 kts 180°
2026-05-04 05:13 -0.77601 55.41908 9210 ft 299 kts 180°
2026-05-04 05:14 -0.79678 55.41914 8834 ft 298 kts 180°
2026-05-04 05:14 -0.81745 55.41915 8461 ft 296 kts 180°
2026-05-04 05:14 -0.83800 55.41911 8102 ft 295 kts 180°
2026-05-04 05:14 -0.85843 55.41904 7753 ft 293 kts 180°
2026-05-04 05:15 -0.87872 55.41892 7406 ft 291 kts 181°
2026-05-04 05:15 -0.89890 55.41876 7052 ft 289 kts 181°
2026-05-04 05:15 -0.91895 55.41856 6692 ft 288 kts 181°
2026-05-04 05:15 -0.93894 55.41832 6333 ft 287 kts 181°
2026-05-04 05:16 -0.95884 55.41803 5982 ft 285 kts 181°
2026-05-04 05:16 -0.97861 55.41771 5639 ft 283 kts 181°
2026-05-04 05:16 -0.99825 55.41733 5297 ft 282 kts 181°
2026-05-04 05:16 -1.01778 55.41692 4950 ft 280 kts 181°
2026-05-04 05:17 -1.03723 55.41646 4600 ft 279 kts 182°
2026-05-04 05:17 -1.05660 55.41595 4252 ft 278 kts 182°
2026-05-04 05:17 -1.07585 55.41540 3911 ft 276 kts 182°
2026-05-04 05:17 -1.09500 55.41481 3574 ft 275 kts 182°
2026-05-04 05:18 -1.11406 55.41417 3237 ft 273 kts 182°
2026-05-04 05:18 -1.13299 55.41349 2899 ft 272 kts 182°
2026-05-04 05:18 -1.15185 55.41277 2561 ft 271 kts 182°
2026-05-04 05:18 -1.17062 55.41201 2224 ft 269 kts 183°
2026-05-04 05:19 -1.18928 55.41120 1890 ft 268 kts 183°
2026-05-04 05:19 -1.20785 55.41034 1556 ft 267 kts 183°
2026-05-04 05:19 -1.22635 55.40944 1225 ft 265 kts 183°
2026-05-04 05:19 -1.24474 55.40849 897 ft 264 kts 183°
2026-05-04 05:20 -1.26303 55.40750 569 ft 263 kts 184°
2026-05-04 05:20 -1.28124 55.40647 238 ft 262 kts 184°
2026-05-04 05:20 -1.29933 55.40539 36 ft 253 kts 184°
2026-05-04 05:20 -1.31624 55.40435 100 ft 237 kts 184°
2026-05-04 05:21 -1.33229 55.40332 6 ft 224 kts 184°
2026-05-04 05:21 -1.34730 55.40220 6 ft 208 kts 185°
2026-05-04 05:21 -1.36046 55.40061 6 ft 161 kts 191°
2026-05-04 05:21 -1.36711 55.39922 6 ft 20 kts 192°
2026-05-04 05:22 -1.36719 55.39920 6 ft 0 kts 192°
2026-05-04 05:28 -1.36718 55.39920 6 ft 0 kts 191°
2026-05-04 05:37 -1.36718 55.39921 6 ft 0 kts 189°
2026-05-04 05:45 -1.36717 55.39921 6 ft 0 kts 188°